FW4143 Weather Reports


time (UTC)temp
C
wind
direction
speed
KPH
gust
KPH
rain 1hr
cm
rain 24hr
cm
rain mn
cm
humidity
%
barometer
mb
20260506015803 26 289 4.8 11.3 0.00 0.00 0.00 16 1006.4
20260506015703 26 293 4.8 11.3 0.00 0.00 0.00 16 1006.4
20260506015603 26 296 4.8 11.3 0.00 0.00 0.00 17 1006.4
20260506015503 26 300 4.8 11.3 0.00 0.00 0.00 18 1006.4
20260506015403 26 301 4.8 11.3 0.00 0.00 0.00 19 1006.4
20260506015305 26 304 4.8 9.7 0.00 0.00 0.00 19 1006.3
20260506015203 27 309 4.8 9.7 0.00 0.00 0.00 20 1006.3
20260506015103 27 317 4.8 9.7 0.00 0.00 0.00 21 1006.3
20260506015003 27 318 4.8 11.3 0.00 0.00 0.00 22 1006.2
20260506014903 27 323 4.8 11.3 0.00 0.00 0.00 22 1006.2
20260506014803 27 323 4.8 11.3 0.00 0.00 0.00 23 1006.2
20260506014703 27 327 4.8 11.3 0.00 0.00 0.00 23 1006.2
20260506014603 27 327 4.8 11.3 0.00 0.00 0.00 24 1006.2
20260506014503 27 329 4.8 11.3 0.00 0.00 0.00 24 1006.2
20260506014403 27 339 4.8 11.3 0.00 0.00 0.00 25 1006.2
20260506014303 27 350 4.8 11.3 0.00 0.00 0.00 25 1006.2
20260506014203 27 340 4.8 11.3 0.00 0.00 0.00 25 1006.2
20260506014103 27 343 6.4 11.3 0.00 0.00 0.00 26 1006.2
20260506014003 27 354 4.8 11.3 0.00 0.00 0.00 26 1006.2
20260506013903 27 5 4.8 11.3 0.00 0.00 0.00 26 1006.2
20260506013803 27 21 4.8 11.3 0.00 0.00 0.00 26 1006.2
20260506013703 27 31 4.8 11.3 0.00 0.00 0.00 27 1006.3
20260506013603 27 40 4.8 11.3 0.00 0.00 0.00 27 1006.3
20260506013504 27 49 4.8 11.3 0.00 0.00 0.00 27 1006.3
20260506013424 27 49 4.8 11.3 0.00 0.00 0.00 28 1006.3
20260506013303 27 50 4.8 11.3 0.00 0.00 0.00 28 1006.3
20260506013224 27 55 4.8 11.3 0.00 0.00 0.00 28 1006.3
20260506013103 27 51 3.2 11.3 0.00 0.00 0.00 29 1006.3
20260506013024 27 50 3.2 8.0 0.00 0.00 0.00 29 1006.3
20260506012903 27 32 3.2 8.0 0.00 0.00 0.00 29 1006.3
20260506012824 27 21 3.2 8.0 0.00 0.00 0.00 30 1006.3
20260506012703 27 357 3.2 8.0 0.00 0.00 0.00 30 1006.3
20260506012624 27 343 3.2 8.0 0.00 0.00 0.00 30 1006.3
20260506012503 27 326 3.2 8.0 0.00 0.00 0.00 31 1006.3
20260506012424 27 326 3.2 8.0 0.00 0.00 0.00 31 1006.2
20260506012307 27 323 3.2 8.0 0.00 0.00 0.00 32 1006.3
20260506012203 27 324 3.2 8.0 0.00 0.00 0.00 32 1006.3
20260506012103 27 329 3.2 8.0 0.00 0.00 0.00 32 1006.3
20260506012024 27 343 3.2 8.0 0.00 0.00 0.00 32 1006.3
20260506011924 27 359 3.2 8.0 0.00 0.00 0.00 33 1006.3
20260506011803 27 26 3.2 8.0 0.00 0.00 0.00 33 1006.3
20260506011703 27 38 3.2 8.0 0.00 0.00 0.00 34 1006.3
20260506011603 27 48 1.6 8.0 0.00 0.00 0.00 34 1006.3
20260506011503 27 53 1.6 6.4 0.00 0.00 0.00 35 1006.3
20260506011403 27 53 1.6 6.4 0.00 0.00 0.00 35 1006.3
20260506011303 27 53 1.6 6.4 0.00 0.00 0.00 35 1006.3
20260506011203 27 54 1.6 6.4 0.00 0.00 0.00 35 1006.3
20260506011103 27 54 1.6 6.4 0.00 0.00 0.00 35 1006.2
20260506011003 27 54 1.6 8.0 0.00 0.00 0.00 35 1006.2
20260506010924 27 54 3.2 8.0 0.00 0.00 0.00 35 1006.3
20260506010824 27 54 3.2 8.0 0.00 0.00 0.00 36 1006.3
20260506010703 27 54 3.2 8.0 0.00 0.00 0.00 36 1006.3
20260506010603 27 54 3.2 8.0 0.00 0.00 0.00 36 1006.2
20260506010503 27 54 3.2 8.0 0.00 0.00 0.00 36 1006.3
20260506010424 27 55 3.2 8.0 0.00 0.00 0.00 37 1006.2
20260506010324 27 55 3.2 8.0 0.00 0.00 0.00 37 1006.2
20260506010203 27 55 3.2 8.0 0.00 0.00 0.00 37 1006.2
20260506010103 27 55 3.2 8.0 0.00 0.00 0.00 37 1006.2
20260506010003 27 55 3.2 8.0 0.00 0.00 0.00 37 1006.2
20260506005903 27 56 3.2 6.4 0.00 0.00 0.00 37 1006.2
20260506005803 27 56 1.6 6.4 0.00 0.00 0.00 38 1006.2
20260506005703 27 56 1.6 4.8 0.00 0.00 0.00 38 1006.2
20260506005603 27 56 3.2 4.8 0.00 0.00 0.00 38 1006.2
20260506005524 27 56 3.2 4.8 0.00 0.00 0.00 38 1006.2
20260506005424 27 55 3.2 4.8 0.00 0.00 0.00 39 1006.2
20260506005305 27 55 3.2 6.4 0.00 0.00 0.00 38 1006.2
20260506005203 27 55 3.2 6.4 0.00 0.00 0.00 39 1006.2
20260506005124 28 55 3.2 6.4 0.00 0.00 0.00 39 1006.2
20260506005003 28 55 3.2 6.4 0.00 0.00 0.00 39 1006.2
20260506004903 28 55 3.2 6.4 0.00 0.00 0.00 39 1006.2
20260506004803 28 55 3.2 6.4 0.00 0.00 0.00 39 1006.2
20260506004703 28 55 1.6 6.4 0.00 0.00 0.00 39 1006.2
20260506004604 28 55 1.6 6.4 0.00 0.00 0.00 39 1006.2
20260506004504 28 55 1.6 6.4 0.00 0.00 0.00 39 1006.2
20260506004403 28 55 1.6 6.4 0.00 0.00 0.00 40 1006.2
20260506004324 28 55 1.6 6.4 0.00 0.00 0.00 39 1006.2
20260506004224 28 55 1.6 6.4 0.00 0.00 0.00 40 1006.2
20260506004103 28 54 1.6 6.4 0.00 0.00 0.00 40 1006.2
20260506004003 28 54 1.6 6.4 0.00 0.00 0.00 40 1006.2
20260506003903 28 54 1.6 9.7 0.00 0.00 0.00 40 1006.1
20260506003803 28 54 1.6 9.7 0.00 0.00 0.00 40 1006.1
20260506003703 28 53 3.2 9.7 0.00 0.00 0.00 40 1006.1
20260506003603 28 53 3.2 9.7 0.00 0.00 0.00 40 1006.1
20260506003503 28 53 3.2 9.7 0.00 0.00 0.00 41 1006.1
20260506003403 28 53 3.2 9.7 0.00 0.00 0.00 41 1006.1
20260506003303 28 53 3.2 9.7 0.00 0.00 0.00 41 1006.1
20260506003203 28 53 3.2 9.7 0.00 0.00 0.00 41 1006.1
20260506003103 28 53 4.8 9.7 0.00 0.00 0.00 41 1006.1
20260506003003 28 53 4.8 9.7 0.00 0.00 0.00 42 1006.1
20260506002903 28 53 3.2 9.7 0.00 0.00 0.00 42 1006.1
20260506002803 28 53 3.2 9.7 0.00 0.00 0.00 42 1006.1
20260506002724 28 52 3.2 9.7 0.00 0.00 0.00 42 1006.1
20260506002603 28 51 3.2 6.4 0.00 0.00 0.00 42 1006.1
20260506002503 28 49 3.2 6.4 0.00 0.00 0.00 42 1006.2
20260506002424 28 47 3.2 9.7 0.00 0.00 0.00 42 1006.2
20260506002305 28 45 3.2 9.7 0.00 0.00 0.00 42 1006.1
20260506002203 28 43 3.2 9.7 0.00 0.00 0.00 42 1006.2
20260506002103 28 42 3.2 9.7 0.00 0.00 0.00 42 1006.2
20260506002003 28 41 3.2 9.7 0.00 0.00 0.00 42 1006.1
20260506001903 28 41 3.2 9.7 0.00 0.00 0.00 43 1006.1
20260506001803 28 40 3.2 9.7 0.00 0.00 0.00 43 1006.1
20260506001724 28 41 4.8 9.7 0.00 0.00 0.00 43 1006.1
20260506001624 28 42 4.8 9.7 0.00 0.00 0.00 43 1006.0
20260506001503 28 42 4.8 9.7 0.00 0.00 0.00 43 1006.0
20260506001403 28 42 4.8 12.9 0.00 0.00 0.00 43 1006.0
20260506001303 28 41 4.8 12.9 0.00 0.00 0.00 43 1006.0
20260506001203 28 42 4.8 12.9 0.00 0.00 0.00 43 1006.0
20260506001103 28 43 4.8 12.9 0.00 0.00 0.00 44 1006.0
20260506001003 28 43 6.4 16.1 0.00 0.00 0.00 43 1006.0
20260506000903 28 43 6.4 16.1 0.00 0.00 0.00 44 1005.9
20260506000803 28 44 6.4 16.1 0.00 0.00 0.00 44 1006.0
20260506000724 28 45 6.4 16.1 0.00 0.00 0.00 44 1006.0
20260506000624 28 44 6.4 16.1 0.00 0.00 0.00 44 1006.0
20260506000503 28 44 6.4 16.1 0.00 0.00 0.00 45 1006.0
20260506000424 28 46 6.4 16.1 0.00 0.00 0.00 45 1005.9
20260506000324 28 48 6.4 16.1 0.00 0.00 0.00 45 1005.9
20260506000205 28 43 6.4 16.1 0.00 0.00 0.00 45 1005.9
20260506000003 28 35 8.0 17.7 0.00 0.00 0.00 44 1005.8
20260505235903 28 33 8.0 17.7 0.00 0.00 0.00 45 1005.9
20260505235803 28 28 8.0 17.7 0.00 0.00 0.00 45 1005.9
20260505235703 28 21 6.4 17.7 0.00 0.00 0.00 45 1005.9
20260505235603 28 13 6.4 17.7 0.00 0.00 0.00 45 1005.9
20260505235503 28 11 6.4 17.7 0.00 0.00 0.00 45 1005.9
20260505235403 28 9 8.0 17.7 0.00 0.00 0.00 45 1005.8
20260505235305 28 11 6.4 17.7 0.00 0.00 0.00 45 1005.8
20260505235203 28 12 6.4 17.7 0.00 0.00 0.00 45 1005.7
20260505235103 28 9 6.4 16.1 0.00 0.00 0.00 45 1005.7
20260505235003 28 6 6.4 16.1 0.00 0.00 0.00 45 1005.7
20260505234924 28 7 6.4 16.1 0.00 0.00 0.00 45 1005.7
20260505234803 28 16 6.4 16.1 0.00 0.00 0.00 45 1005.7
20260505234724 28 21 6.4 16.1 0.00 0.00 0.00 46 1005.7
20260505234603 28 27 6.4 16.1 0.00 0.00 0.00 45 1005.7
20260505234503 28 22 6.4 22.5 0.00 0.00 0.00 45 1005.7
20260505234403 28 17 6.4 22.5 0.00 0.00 0.00 45 1005.7
20260505234303 28 16 6.4 22.5 0.00 0.00 0.00 45 1005.7
20260505234203 28 19 6.4 22.5 0.00 0.00 0.00 46 1005.7
20260505234103 28 25 6.4 22.5 0.00 0.00 0.00 46 1005.7
20260505234003 28 32 6.4 22.5 0.00 0.00 0.00 46 1005.7
20260505233903 28 30 6.4 22.5 0.00 0.00 0.00 46 1005.6
20260505233803 28 27 6.4 22.5 0.00 0.00 0.00 46 1005.6
20260505233703 28 30 6.4 22.5 0.00 0.00 0.00 46 1005.6
20260505233603 28 30 6.4 22.5 0.00 0.00 0.00 45 1005.6
20260505233503 28 36 6.4 20.9 0.00 0.00 0.00 45 1005.6
20260505233424 28 41 8.0 19.3 0.00 0.00 0.00 45 1005.6
20260505233303 28 31 8.0 19.3 0.00 0.00 0.00 46 1005.6
20260505233225 28 30 8.0 19.3 0.00 0.00 0.00 46 1005.6
20260505233103 28 28 9.7 19.3 0.00 0.00 0.00 46 1005.6
20260505233024 28 26 8.0 19.3 0.00 0.00 0.00 46 1005.7
20260505232924 28 24 8.0 19.3 0.00 0.00 0.00 46 1005.7
20260505232803 28 17 8.0 19.3 0.00 0.00 0.00 46 1005.6
20260505232703 28 10 8.0 19.3 0.00 0.00 0.00 46 1005.7
20260505232603 28 4 6.4 19.3 0.00 0.00 0.00 46 1005.7
20260505232503 28 349 6.4 19.3 0.00 0.00 0.00 46 1005.7
20260505232403 28 346 6.4 16.1 0.00 0.00 0.00 46 1005.7
20260505232305 28 356 6.4 16.1 0.00 0.00 0.00 46 1005.7
20260505232203 28 351 6.4 16.1 0.00 0.00 0.00 46 1005.6
20260505232103 28 339 6.4 16.1 0.00 0.00 0.00 46 1005.6
20260505232003 28 338 6.4 16.1 0.00 0.00 0.00 46 1005.7
20260505231903 28 340 6.4 19.3 0.00 0.00 0.00 46 1005.7
20260505231803 28 347 8.0 19.3 0.00 0.00 0.00 46 1005.7
20260505231703 28 355 8.0 19.3 0.00 0.00 0.00 46 1005.7
20260505231603 28 358 8.0 19.3 0.00 0.00 0.00 46 1005.7
20260505231503 28 1 8.0 19.3 0.00 0.00 0.00 46 1005.7
20260505231403 28 357 8.0 19.3 0.00 0.00 0.00 46 1005.7
20260505231303 28 351 8.0 19.3 0.00 0.00 0.00 47 1005.7
20260505231203 28 346 8.0 19.3 0.00 0.00 0.00 47 1005.7
20260505231103 28 352 8.0 19.3 0.00 0.00 0.00 47 1005.7
20260505231003 28 349 6.4 19.3 0.00 0.00 0.00 47 1005.7
20260505230903 28 344 6.4 16.1 0.00 0.00 0.00 47 1005.7
20260505230803 28 338 6.4 16.1 0.00 0.00 0.00 47 1005.7
20260505230703 28 336 6.4 16.1 0.00 0.00 0.00 47 1005.7
20260505230603 28 337 6.4 16.1 0.00 0.00 0.00 47 1005.6
20260505230503 28 335 6.4 14.5 0.00 0.00 0.00 47 1005.6
20260505230403 28 333 6.4 14.5 0.00 0.00 0.00 47 1005.6
20260505230303 28 335 6.4 14.5 0.00 0.00 0.00 47 1005.6
20260505230203 28 338 6.4 14.5 0.00 0.00 0.00 47 1005.6
20260505230003 28 343 8.0 17.7 0.00 0.00 0.00 47 1005.6
20260505225924 28 345 9.7 17.7 0.00 0.00 0.00 47 1005.5
20260505225803 28 358 9.7 25.7 0.00 0.00 0.00 47 1005.6
20260505225703 28 1 9.7 25.7 0.00 0.00 0.00 48 1005.5
20260505225603 28 3 9.7 25.7 0.00 0.00 0.00 48 1005.5
20260505225504 28 6 9.7 25.7 0.00 0.00 0.00 48 1005.6
20260505225403 28 11 9.7 25.7 0.00 0.00 0.00 48 1005.5
20260505225305 28 13 9.7 25.7 0.00 0.00 0.00 48 1005.6
20260505225203 28 12 11.3 25.7 0.00 0.00 0.00 49 1005.5
20260505225103 28 14 11.3 25.7 0.00 0.00 0.00 49 1005.6
20260505225003 28 15 11.3 25.7 0.00 0.00 0.00 49 1005.6
20260505224903 28 19 9.7 20.9 0.00 0.00 0.00 48 1005.6
20260505224824 28 17 9.7 20.9 0.00 0.00 0.00 48 1005.6
20260505224703 28 18 9.7 20.9 0.00 0.00 0.00 48 1005.5
20260505224603 28 17 9.7 20.9 0.00 0.00 0.00 48 1005.5
20260505224503 28 20 9.7 19.3 0.00 0.00 0.00 48 1005.5
20260505224403 28 21 9.7 19.3 0.00 0.00 0.00 48 1005.5
20260505224303 28 22 9.7 19.3 0.00 0.00 0.00 48 1005.5
20260505224203 28 24 9.7 19.3 0.00 0.00 0.00 48 1005.4
20260505224103 28 23 9.7 19.3 0.00 0.00 0.00 48 1005.4
20260505224003 28 21 8.0 19.3 0.00 0.00 0.00 48 1005.5
20260505223904 28 18 9.7 19.3 0.00 0.00 0.00 48 1005.5
20260505223803 28 14 9.7 22.5 0.00 0.00 0.00 48 1005.6
20260505223703 28 9 9.7 24.1 0.00 0.00 0.00 48 1005.5
20260505223603 28 9 9.7 24.1 0.00 0.00 0.00 48 1005.5
20260505223503 28 11 9.7 24.1 0.00 0.00 0.00 48 1005.6
20260505223403 28 14 9.7 24.1 0.00 0.00 0.00 48 1005.5
20260505223303 28 9 8.0 24.1 0.00 0.00 0.00 47 1005.6
20260505223203 28 8 9.7 24.1 0.00 0.00 0.00 47 1005.5
20260505223124 28 12 9.7 24.1 0.00 0.00 0.00 47 1005.5
20260505223003 28 9 9.7 24.1 0.00 0.00 0.00 47 1005.5
20260505222903 28 14 9.7 24.1 0.00 0.00 0.00 47 1005.5
20260505222824 28 17 9.7 24.1 0.00 0.00 0.00 47 1005.5
20260505222703 28 25 9.7 20.9 0.00 0.00 0.00 47 1005.5
20260505222604 28 27 9.7 20.9 0.00 0.00 0.00 47 1005.5
20260505222503 28 26 9.7 20.9 0.00 0.00 0.00 47 1005.5
20260505222424 28 25 9.7 20.9 0.00 0.00 0.00 47 1005.6
20260505222305 28 28 9.7 20.9 0.00 0.00 0.00 47 1005.6
20260505222203 28 27 9.7 17.7 0.00 0.00 0.00 47 1005.6
20260505222103 28 24 9.7 17.7 0.00 0.00 0.00 47 1005.6
20260505222003 28 24 9.7 17.7 0.00 0.00 0.00 47 1005.6
20260505221903 28 22 9.7 17.7 0.00 0.00 0.00 47 1005.7
20260505221803 28 17 8.0 17.7 0.00 0.00 0.00 46 1005.7
20260505221703 28 11 8.0 17.7 0.00 0.00 0.00 46 1005.7
20260505221604 28 5 8.0 17.7 0.00 0.00 0.00 46 1005.7
20260505221503 28 360 6.4 17.7 0.00 0.00 0.00 46 1005.7
20260505221403 28 2 6.4 17.7 0.00 0.00 0.00 47 1005.8
20260505221303 28 2 6.4 17.7 0.00 0.00 0.00 47 1005.7
20260505221203 28 5 6.4 17.7 0.00 0.00 0.00 46 1005.7
20260505221103 28 8 6.4 17.7 0.00 0.00 0.00 46 1005.7
20260505221024 28 14 6.4 17.7 0.00 0.00 0.00 46 1005.8
20260505220925 28 11 8.0 17.7 0.00 0.00 0.00 46 1005.8
20260505220803 28 15 8.0 17.7 0.00 0.00 0.00 46 1005.7
20260505220703 28 16 8.0 17.7 0.00 0.00 0.00 46 1005.8
20260505220603 28 19 8.0 17.7 0.00 0.00 0.00 46 1005.8
20260505220503 28 25 8.0 17.7 0.00 0.00 0.00 46 1005.8
20260505220403 28 25 9.7 17.7 0.00 0.00 0.00 46 1005.8
20260505220303 28 26 9.7 24.1 0.00 0.00 0.00 46 1005.8
20260505220225 28 26 9.7 24.1 0.00 0.00 0.00 46 1005.8
20260505220103 28 29 11.3 24.1 0.00 0.00 0.00 47 1005.8
20260505220004 28 30 11.3 24.1 0.00 0.00 0.00 47 1005.8
20260505215903 28 32 9.7 24.1 0.00 0.00 0.00 47 1005.8
20260505215803 28 33 9.7 24.1 0.00 0.00 0.00 46 1005.9
20260505215703 28 37 9.7 24.1 0.00 0.00 0.00 46 1005.9
20260505215604 28 39 9.7 24.1 0.00 0.00 0.00 46 1005.9
20260505215503 28 36 9.7 24.1 0.00 0.00 0.00 47 1005.9
20260505215424 28 36 9.7 24.1 0.00 0.00 0.00 47 1005.9
20260505215305 28 37 9.7 24.1 0.00 0.00 0.00 46 1006.0
20260505215203 28 34 8.0 17.7 0.00 0.00 0.00 46 1006.0
20260505215103 28 31 9.7 19.3 0.00 0.00 0.00 46 1006.0
20260505215003 28 25 8.0 19.3 0.00 0.00 0.00 45 1006.1
20260505214903 28 19 8.0 19.3 0.00 0.00 0.00 45 1006.1
20260505214803 28 19 9.7 19.3 0.00 0.00 0.00 46 1006.1
20260505214703 28 9 9.7 19.3 0.00 0.00 0.00 45 1006.1
20260505214603 28 7 8.0 19.3 0.00 0.00 0.00 45 1006.1
20260505214503 28 11 8.0 19.3 0.00 0.00 0.00 45 1006.1
20260505214403 28 10 8.0 19.3 0.00 0.00 0.00 45 1006.1
20260505214304 28 3 9.7 19.3 0.00 0.00 0.00 45 1006.1
20260505214203 28 8 9.7 19.3 0.00 0.00 0.00 45 1006.1
20260505214103 28 10 9.7 17.7 0.00 0.00 0.00 45 1006.0
20260505214003 28 19 9.7 17.7 0.00 0.00 0.00 45 1006.0
20260505213924 28 20 9.7 17.7 0.00 0.00 0.00 45 1006.0
20260505213825 28 28 9.7 17.7 0.00 0.00 0.00 45 1006.0
20260505213704 28 33 8.0 17.7 0.00 0.00 0.00 44 1006.1
20260505213604 28 30 8.0 17.7 0.00 0.00 0.00 45 1006.1
20260505213503 28 29 8.0 17.7 0.00 0.00 0.00 45 1006.1
20260505213424 28 29 8.0 17.7 0.00 0.00 0.00 45 1006.2
20260505213303 28 38 8.0 17.7 0.00 0.00 0.00 44 1006.2
20260505213224 28 38 8.0 17.7 0.00 0.00 0.00 44 1006.2
20260505213124 28 39 8.0 17.7 0.00 0.00 0.00 44 1006.3
20260505213024 28 39 8.0 14.5 0.00 0.00 0.00 44 1006.3
20260505212904 28 42 8.0 19.3 0.00 0.00 0.00 44 1006.4
20260505212803 28 41 8.0 19.3 0.00 0.00 0.00 43 1006.4
20260505212704 28 41 8.0 19.3 0.00 0.00 0.00 43 1006.4
20260505212603 28 45 9.7 19.3 0.00 0.00 0.00 43 1006.4
20260505212524 28 45 8.0 19.3 0.00 0.00 0.00 43 1006.4
20260505212403 28 44 9.7 19.3 0.00 0.00 0.00 43 1006.4
20260505212305 28 43 8.0 19.3 0.00 0.00 0.00 44 1006.4
20260505212204 28 41 8.0 19.3 0.00 0.00 0.00 44 1006.4
20260505212103 28 40 9.7 19.3 0.00 0.00 0.00 44 1006.3
20260505212004 28 35 9.7 19.3 0.00 0.00 0.00 44 1006.4
20260505211903 28 29 9.7 17.7 0.00 0.00 0.00 44 1006.4
20260505211803 28 31 9.7 17.7 0.00 0.00 0.00 44 1006.4
20260505211725 28 31 9.7 17.7 0.00 0.00 0.00 44 1006.4
20260505211603 28 28 9.7 17.7 0.00 0.00 0.00 43 1006.3
20260505211503 28 30 9.7 17.7 0.00 0.00 0.00 43 1006.3
20260505211403 28 29 9.7 17.7 0.00 0.00 0.00 43 1006.3
20260505211324 28 30 9.7 19.3 0.00 0.00 0.00 43 1006.3
20260505211203 28 32 9.7 19.3 0.00 0.00 0.00 44 1006.4
20260505211103 28 31 9.7 19.3 0.00 0.00 0.00 44 1006.4
20260505211003 28 33 9.7 19.3 0.00 0.00 0.00 44 1006.4
20260505210903 28 37 9.7 19.3 0.00 0.00 0.00 44 1006.4
20260505210824 28 36 9.7 19.3 0.00 0.00 0.00 44 1006.5
20260505210703 28 33 11.3 19.3 0.00 0.00 0.00 45 1006.6
20260505210603 28 33 9.7 19.3 0.00 0.00 0.00 45 1006.6
20260505210524 28 31 9.7 19.3 0.00 0.00 0.00 45 1006.6
20260505210403 28 28 9.7 19.3 0.00 0.00 0.00 45 1006.6
20260505210303 28 24 9.7 19.3 0.00 0.00 0.00 45 1006.6
20260505210203 28 25 9.7 19.3 0.00 0.00 0.00 45 1006.6
20260505210103 28 27 9.7 19.3 0.00 0.00 0.00 45 1006.7
20260505210024 28 29 9.7 19.3 0.00 0.00 0.00 45 1006.7
20260505205903 28 27 9.7 19.3 0.00 0.00 0.00 45 1006.6
20260505205803 28 24 9.7 19.3 0.00 0.00 0.00 45 1006.7
20260505205704 28 22 9.7 19.3 0.00 0.00 0.00 45 1006.6
20260505205624 28 23 9.7 19.3 0.00 0.00 0.00 45 1006.7
20260505205503 28 29 11.3 20.9 0.00 0.00 0.00 45 1006.7
20260505205424 28 30 11.3 20.9 0.00 0.00 0.00 45 1006.6
20260505205305 28 34 9.7 20.9 0.00 0.00 0.00 45 1006.6
20260505205203 28 34 9.7 20.9 0.00 0.00 0.00 45 1006.6
20260505205103 28 34 9.7 20.9 0.00 0.00 0.00 44 1006.6
20260505205003 28 31 11.3 20.9 0.00 0.00 0.00 44 1006.7
20260505204904 28 33 11.3 22.5 0.00 0.00 0.00 44 1006.7
20260505204824 28 36 11.3 22.5 0.00 0.00 0.00 43 1006.7
20260505204703 28 40 11.3 22.5 0.00 0.00 0.00 42 1006.6
20260505204603 28 39 11.3 22.5 0.00 0.00 0.00 42 1006.7
20260505204504 28 39 11.3 22.5 0.00 0.00 0.00 42 1006.7
20260505204403 28 38 12.9 22.5 0.00 0.00 0.00 41 1006.7
20260505204303 28 36 12.9 22.5 0.00 0.00 0.00 42 1006.7
20260505204203 28 35 11.3 22.5 0.00 0.00 0.00 43 1006.7
20260505204103 28 36 11.3 22.5 0.00 0.00 0.00 43 1006.8
20260505204024 28 38 11.3 22.5 0.00 0.00 0.00 43 1006.8
20260505203903 28 40 11.3 22.5 0.00 0.00 0.00 42 1006.8
20260505203824 28 38 12.9 27.4 0.00 0.00 0.00 42 1006.8
20260505203703 28 37 12.9 27.4 0.00 0.00 0.00 42 1006.9
20260505203603 28 37 12.9 27.4 0.00 0.00 0.00 42 1006.9
20260505203503 28 37 12.9 27.4 0.00 0.00 0.00 42 1007.0
20260505203403 28 38 12.9 27.4 0.00 0.00 0.00 41 1007.0
20260505203303 28 38 12.9 27.4 0.00 0.00 0.00 41 1007.0
20260505203203 28 38 14.5 27.4 0.00 0.00 0.00 42 1007.0
20260505203124 28 38 14.5 27.4 0.00 0.00 0.00 42 1007.0
20260505203024 28 37 14.5 27.4 0.00 0.00 0.00 42 1007.0
20260505202903 28 38 14.5 27.4 0.00 0.00 0.00 42 1007.0
20260505202824 28 37 14.5 24.1 0.00 0.00 0.00 42 1007.0
20260505202724 28 39 12.9 24.1 0.00 0.00 0.00 41 1007.0
20260505202624 28 39 12.9 24.1 0.00 0.00 0.00 40 1007.0
20260505202503 28 38 12.9 24.1 0.00 0.00 0.00 40 1007.1
20260505202424 28 38 12.9 24.1 0.00 0.00 0.00 41 1007.0
20260505202306 28 39 12.9 20.9 0.00 0.00 0.00 40 1007.1
20260505202203 28 39 12.9 20.9 0.00 0.00 0.00 41 1007.2
20260505202103 28 39 12.9 20.9 0.00 0.00 0.00 40 1007.1
20260505202003 28 39 12.9 20.9 0.00 0.00 0.00 40 1007.2
20260505201903 28 38 12.9 20.9 0.00 0.00 0.00 40 1007.2
20260505201803 28 40 11.3 22.5 0.00 0.00 0.00 38 1007.2
20260505201703 28 40 11.3 22.5 0.00 0.00 0.00 38 1007.2
20260505201604 27 41 11.3 22.5 0.00 0.00 0.00 37 1007.3
20260505201504 27 41 11.3 22.5 0.00 0.00 0.00 38 1007.3
20260505201403 27 40 12.9 22.5 0.00 0.00 0.00 37 1007.3
20260505201303 27 38 11.3 22.5 0.00 0.00 0.00 37 1007.3
20260505201224 27 38 12.9 22.5 0.00 0.00 0.00 36 1007.4
20260505201103 27 36 11.3 22.5 0.00 0.00 0.00 36 1007.4
20260505201003 27 35 12.9 22.5 0.00 0.00 0.00 37 1007.4
20260505200924 27 35 11.3 22.5 0.00 0.00 0.00 37 1007.5
20260505200803 27 34 11.3 22.5 0.00 0.00 0.00 36 1007.5
20260505200703 27 34 11.3 22.5 0.00 0.00 0.00 36 1007.5
20260505200603 27 34 12.9 22.5 0.00 0.00 0.00 36 1007.5
20260505200503 27 35 12.9 22.5 0.00 0.00 0.00 36 1007.4
20260505200403 27 37 12.9 20.9 0.00 0.00 0.00 36 1007.5
20260505200303 27 37 12.9 20.9 0.00 0.00 0.00 35 1007.4
20260505200224 27 37 11.3 20.9 0.00 0.00 0.00 33 1007.4
20260505200103 27 37 11.3 20.9 0.00 0.00 0.00 33 1007.4
20260505200024 27 37 11.3 20.9 0.00 0.00 0.00 33 1007.4
20260505195924 27 40 11.3 20.9 0.00 0.00 0.00 33 1007.5
20260505195803 27 41 11.3 20.9 0.00 0.00 0.00 34 1007.6
20260505195703 27 41 11.3 20.9 0.00 0.00 0.00 35 1007.6
20260505195603 27 42 9.7 20.9 0.00 0.00 0.00 34 1007.7
20260505195503 27 40 9.7 20.9 0.00 0.00 0.00 34 1007.7
20260505195403 27 40 9.7 19.3 0.00 0.00 0.00 33 1007.6
20260505195305 27 41 9.7 19.3 0.00 0.00 0.00 31 1007.7
20260505195203 27 44 9.7 17.7 0.00 0.00 0.00 31 1007.7
20260505195104 27 42 9.7 17.7 0.00 0.00 0.00 32 1007.7
20260505195003 27 41 11.3 19.3 0.00 0.00 0.00 31 1007.6
20260505194903 27 38 11.3 25.7 0.00 0.00 0.00 33 1007.7
20260505194803 27 36 11.3 25.7 0.00 0.00 0.00 33 1007.6
20260505194703 27 34 12.9 25.7 0.00 0.00 0.00 33 1007.7
20260505194603 27 32 12.9 25.7 0.00 0.00 0.00 33 1007.7
20260505194503 27 33 12.9 25.7 0.00 0.00 0.00 32 1007.8
20260505194403 27 33 12.9 25.7 0.00 0.00 0.00 32 1007.7
20260505194303 27 33 11.3 25.7 0.00 0.00 0.00 31 1007.8
20260505194203 27 32 11.3 25.7 0.00 0.00 0.00 32 1007.8
20260505194104 27 35 11.3 25.7 0.00 0.00 0.00 33 1007.8
20260505194003 27 32 11.3 25.7 0.00 0.00 0.00 33 1007.8
20260505193903 27 31 11.3 24.1 0.00 0.00 0.00 33 1007.9
20260505193804 27 32 11.3 20.9 0.00 0.00 0.00 32 1007.8
20260505193724 27 34 11.3 20.9 0.00 0.00 0.00 31 1007.9
20260505193603 27 37 11.3 20.9 0.00 0.00 0.00 30 1007.8
20260505193503 27 36 11.3 20.9 0.00 0.00 0.00 30 1007.9
20260505193403 27 37 11.3 20.9 0.00 0.00 0.00 30 1007.9
20260505193303 27 37 11.3 20.9 0.00 0.00 0.00 31 1007.9
20260505193224 27 37 9.7 20.9 0.00 0.00 0.00 32 1007.9
20260505193124 27 37 9.7 20.9 0.00 0.00 0.00 32 1007.9
20260505193024 27 38 9.7 20.9 0.00 0.00 0.00 31 1007.8
20260505192924 27 41 9.7 19.3 0.00 0.00 0.00 31 1008.0
20260505192803 27 43 9.7 19.3 0.00 0.00 0.00 30 1007.9
20260505192703 27 41 9.7 22.5 0.00 0.00 0.00 30 1008.0
20260505192603 27 42 9.7 22.5 0.00 0.00 0.00 30 1007.9
20260505192503 27 43 9.7 22.5 0.00 0.00 0.00 30 1008.0
20260505192403 27 42 11.3 25.7 0.00 0.00 0.00 31 1008.0
20260505192305 27 42 11.3 25.7 0.00 0.00 0.00 30 1008.0
20260505192203 27 43 12.9 25.7 0.00 0.00 0.00 30 1008.0
20260505192103 27 43 12.9 25.7 0.00 0.00 0.00 30 1008.0
20260505192003 27 42 12.9 25.7 0.00 0.00 0.00 30 1008.1
20260505191903 27 41 12.9 25.7 0.00 0.00 0.00 31 1008.0
20260505191803 27 42 12.9 25.7 0.00 0.00 0.00 31 1008.0
20260505191703 27 41 12.9 25.7 0.00 0.00 0.00 28 1008.0
20260505191603 27 40 14.5 25.7 0.00 0.00 0.00 30 1008.0
20260505191503 27 40 12.9 25.7 0.00 0.00 0.00 30 1007.9
20260505191403 27 38 12.9 25.7 0.00 0.00 0.00 29 1008.0
20260505191303 27 37 12.9 25.7 0.00 0.00 0.00 30 1008.0
20260505191203 27 35 12.9 20.9 0.00 0.00 0.00 27 1008.0
20260505191124 27 33 12.9 20.9 0.00 0.00 0.00 27 1008.0
20260505191003 27 32 12.9 20.9 0.00 0.00 0.00 28 1008.0
20260505190903 27 32 12.9 20.9 0.00 0.00 0.00 29 1008.0
20260505190803 27 29 11.3 20.9 0.00 0.00 0.00 28 1008.0
20260505190703 26 29 11.3 22.5 0.00 0.00 0.00 27 1008.0
20260505190603 26 29 11.3 22.5 0.00 0.00 0.00 25 1008.1
20260505190503 26 28 11.3 22.5 0.00 0.00 0.00 25 1008.0
20260505190403 26 29 11.3 22.5 0.00 0.00 0.00 25 1008.0
20260505190324 26 30 11.3 22.5 0.00 0.00 0.00 26 1008.0
20260505190204 26 28 11.3 22.5 0.00 0.00 0.00 25 1008.0
20260505190103 26 30 11.3 22.5 0.00 0.00 0.00 25 1008.0
20260505190024 26 32 11.3 22.5 0.00 0.00 0.00 23 1008.0
20260505185903 26 33 11.3 22.5 0.00 0.00 0.00 23 1008.0
20260505185803 26 35 11.3 22.5 0.00 0.00 0.00 22 1008.0
20260505185703 26 34 11.3 22.5 0.00 0.00 0.00 21 1008.0
20260505185603 26 34 9.7 22.5 0.00 0.00 0.00 21 1008.1
20260505185503 26 34 9.7 17.7 0.00 0.00 0.00 19 1008.1
20260505185403 26 35 9.7 19.3 0.00 0.00 0.00 18 1008.1
20260505185324 26 34 11.3 19.3 0.00 0.00 0.00 18 1008.1
20260505185203 26 36 11.3 19.3 0.00 0.00 0.00 17 1008.1
20260505185124 26 35 11.3 19.3 0.00 0.00 0.00 17 1008.1
20260505185003 26 33 11.3 19.3 0.00 0.00 0.00 17 1008.1
20260505184903 26 32 11.3 19.3 0.00 0.00 0.00 18 1008.2
20260505184803 26 33 11.3 19.3 0.00 0.00 0.00 18 1008.2
20260505184703 26 36 11.3 19.3 0.00 0.00 0.00 18 1008.2
20260505184603 26 38 11.3 19.3 0.00 0.00 0.00 18 1008.2
20260505184503 26 40 11.3 19.3 0.00 0.00 0.00 18 1008.2
20260505184403 26 40 11.3 24.1 0.00 0.00 0.00 17 1008.3
20260505184303 26 43 11.3 24.1 0.00 0.00 0.00 16 1008.3
20260505184203 26 46 12.9 24.1 0.00 0.00 0.00 18 1008.2
20260505184124 26 46 11.3 24.1 0.00 0.00 0.00 18 1008.2
20260505184003 26 50 11.3 24.1 0.00 0.00 0.00 18 1008.3
20260505183903 26 52 11.3 24.1 0.00 0.00 0.00 17 1008.3
20260505183803 26 52 12.9 24.1 0.00 0.00 0.00 18 1008.3
20260505183703 26 51 12.9 25.7 0.00 0.00 0.00 18 1008.3
20260505183603 26 51 12.9 25.7 0.00 0.00 0.00 18 1008.3
20260505183503 26 51 12.9 25.7 0.00 0.00 0.00 19 1008.3
20260505183403 26 52 12.9 25.7 0.00 0.00 0.00 15 1008.4
20260505183303 26 52 12.9 25.7 0.00 0.00 0.00 17 1008.4
20260505183203 26 52 12.9 25.7 0.00 0.00 0.00 18 1008.4
20260505183103 26 53 14.5 25.7 0.00 0.00 0.00 18 1008.4
20260505183003 26 52 14.5 30.6 0.00 0.00 0.00 18 1008.4
20260505182903 26 53 14.5 30.6 0.00 0.00 0.00 18 1008.4
20260505182803 26 54 14.5 30.6 0.00 0.00 0.00 18 1008.4
20260505182703 26 53 14.5 30.6 0.00 0.00 0.00 16 1008.4
20260505182603 26 51 14.5 30.6 0.00 0.00 0.00 13 1008.4
20260505182503 26 49 14.5 30.6 0.00 0.00 0.00 13 1008.4
20260505182403 25 48 14.5 30.6 0.00 0.00 0.00 14 1008.4
20260505182306 25 48 14.5 30.6 0.00 0.00 0.00 14 1008.4
20260505182203 25 47 14.5 30.6 0.00 0.00 0.00 15 1008.4
20260505182103 25 43 14.5 30.6 0.00 0.00 0.00 14 1008.5
20260505182004 25 40 14.5 27.4 0.00 0.00 0.00 16 1008.5
20260505181903 26 38 14.5 27.4 0.00 0.00 0.00 15 1008.5
20260505181824 25 37 14.5 27.4 0.00 0.00 0.00 15 1008.5
20260505181703 25 37 12.9 25.7 0.00 0.00 0.00 13 1008.5
20260505181603 25 36 12.9 25.7 0.00 0.00 0.00 13 1008.5
20260505181503 25 38 12.9 25.7 0.00 0.00 0.00 10 1008.5
20260505181424 25 39 12.9 25.7 0.00 0.00 0.00 10 1008.5
20260505181303 25 39 14.5 25.7 0.00 0.00 0.00 11 1008.5
20260505181203 25 38 14.5 25.7 0.00 0.00 0.00 10 1008.6
20260505181124 25 38 14.5 25.7 0.00 0.00 0.00 11 1008.6
20260505181003 25 40 12.9 25.7 0.00 0.00 0.00 9 1008.6
20260505180903 25 40 12.9 25.7 0.00 0.00 0.00 8 1008.6
20260505180803 25 39 12.9 25.7 0.00 0.00 0.00 5 1008.5
20260505180703 25 39 12.9 25.7 0.00 0.00 0.00 5 1008.6
20260505180603 25 41 12.9 25.7 0.00 0.00 0.00 6 1008.6
20260505180503 25 41 12.9 25.7 0.00 0.00 0.00 6 1008.6
20260505180403 25 41 12.9 25.7 0.00 0.00 0.00 8 1008.6
20260505180303 25 40 12.9 25.7 0.00 0.00 0.00 6 1008.6
20260505180224 25 41 11.3 25.7 0.00 0.00 0.00 5 1008.6
20260505180103 25 41 11.3 25.7 0.00 0.00 0.00 5 1008.7
20260505180003 25 40 12.9 25.7 0.00 0.00 0.00 6 1008.7
20260505175903 25 38 12.9 25.7 0.00 0.00 0.00 7 1008.7
20260505175803 25 41 12.9 25.7 0.00 0.00 0.00 4 1008.7
20260505175703 25 42 12.9 25.7 0.00 0.00 0.00 3 1008.8
20260505175604 25 41 14.5 25.7 0.00 0.00 0.00 2 1008.7
20260505175524 25 41 14.5 25.7 0.00 0.00 0.00 2 1008.7
20260505175403 25 40 14.5 25.7 0.00 0.00 0.00 2 1008.8
20260505175305 25 39 14.5 25.7 0.00 0.00 0.00 2 1008.8
20260505175203 25 39 14.5 25.7 0.00 0.00 0.00 4 1008.7
20260505175103 25 39 14.5 25.7 0.00 0.00 0.00 4 1008.7
20260505175025 25 39 14.5 25.7 0.00 0.00 0.00 5 1008.8
20260505174903 25 38 14.5 25.7 0.00 0.00 0.00 5 1008.8
20260505174803 25 37 12.9 25.7 0.00 0.00 0.00 7 1008.8
20260505174724 25 36 12.9 25.7 0.00 0.00 0.00 6 1008.8
20260505174603 25 36 11.3 22.5 0.00 0.00 0.00 3 1008.8
20260505174524 25 35 12.9 22.5 0.00 0.00 0.00 3 1008.8
20260505174403 25 36 12.9 22.5 0.00 0.00 0.00 3 1008.8
20260505174303 25 36 12.9 25.7 0.00 0.00 0.00 4 1008.8
20260505174203 25 37 14.5 25.7 0.00 0.00 0.00 5 1008.8
20260505174103 25 37 12.9 25.7 0.00 0.00 0.00 3 1008.9
20260505174003 25 40 12.9 25.7 0.00 0.00 0.00 3 1008.9
20260505173903 25 39 12.9 25.7 0.00 0.00 0.00 2 1008.9
20260505173803 25 41 12.9 25.7 0.00 0.00 0.00 1 1008.9
20260505173703 25 42 14.5 25.7 0.00 0.00 0.00 2 1008.9
20260505173603 25 44 14.5 25.7 0.00 0.00 0.00 3 1009.0
20260505173503 25 46 14.5 25.7 0.00 0.00 0.00 4 1008.9
20260505173424 25 46 14.5 25.7 0.00 0.00 0.00 4 1008.9
20260505173324 25 47 14.5 24.1 0.00 0.00 0.00 2 1008.9
20260505173203 25 49 12.9 24.1 0.00 0.00 0.00 1 1008.9
20260505173103 25 51 12.9 24.1 0.00 0.00 0.00 1 1009.0
20260505173003 25 51 14.5 24.1 0.00 0.00 0.00 2 1009.0
20260505172903 25 51 14.5 24.1 0.00 0.00 0.00 3 1009.0
20260505172803 25 48 12.9 24.1 0.00 0.00 0.00 3 1009.0
20260505172703 25 47 12.9 22.5 0.00 0.00 0.00 4 1009.0
20260505172603 25 45 12.9 22.5 0.00 0.00 0.00 2 1009.0
20260505172524 25 45 12.9 22.5 0.00 0.00 0.00 2 1009.0
20260505172424 25 46 12.9 22.5 0.00 0.00 0.00 1 1009.0
20260505172305 25 43 12.9 24.1 0.00 0.00 0.00 1 1009.0
20260505172224 25 43 12.9 24.1 0.00 0.00 0.00 1 1008.9
20260505172103 25 41 12.9 24.1 0.00 0.00 0.00 1 1008.9
20260505172003 25 39 12.9 24.1 0.00 0.00 0.00 1 1008.9
20260505171903 25 39 12.9 24.1 0.00 0.00 0.00 1 1009.0
20260505171803 25 42 12.9 24.1 0.00 0.00 0.00 1 1008.9
20260505171703 25 44 11.3 24.1 0.00 0.00 0.00 1 1008.9
20260505171603 25 45 12.9 24.1 0.00 0.00 0.00 1 1009.0
20260505171503 25 43 12.9 24.1 0.00 0.00 0.00 1 1009.0
20260505171403 25 42 12.9 24.1 0.00 0.00 0.00 1 1009.0
20260505171304 25 45 12.9 22.5 0.00 0.00 0.00 1 1009.0
20260505171203 25 44 12.9 22.5 0.00 0.00 0.00 1 1009.1
20260505171103 25 44 12.9 22.5 0.00 0.00 0.00 1 1009.1
20260505171003 24 45 12.9 22.5 0.00 0.00 0.00 1 1009.1
20260505170903 24 47 12.9 22.5 0.00 0.00 0.00 1 1009.1
20260505170803 24 45 12.9 22.5 0.00 0.00 0.00 1 1009.1
20260505170703 24 45 12.9 22.5 0.00 0.00 0.00 1 1009.1
20260505170603 24 42 12.9 25.7 0.00 0.00 0.00 1 1009.1
20260505170503 24 41 12.9 25.7 0.00 0.00 0.00 1 1009.1
20260505170403 24 42 14.5 25.7 0.00 0.00 0.00 1 1009.1
20260505170303 24 41 12.9 25.7 0.00 0.00 0.00 1 1009.1
20260505170203 24 41 12.9 25.7 0.00 0.00 0.00 1 1009.1
20260505170103 24 42 12.9 25.7 0.00 0.00 0.00 1 1009.1
20260505170004 24 41 12.9 25.7 0.00 0.00 0.00 1 1009.1
20260505165903 24 41 12.9 25.7 0.00 0.00 0.00 1 1009.1
20260505165824 24 41 12.9 25.7 0.00 0.00 0.00 1 1009.1
20260505165703 24 39 12.9 25.7 0.00 0.00 0.00 1 1009.1
20260505165603 24 37 12.9 22.5 0.00 0.00 0.00 1 1009.1
20260505165503 24 39 12.9 22.5 0.00 0.00 0.00 1 1009.1
20260505165403 24 40 12.9 22.5 0.00 0.00 0.00 1 1009.1
20260505165306 24 39 12.9 22.5 0.00 0.00 0.00 1 1009.0
20260505165203 24 40 12.9 22.5 0.00 0.00 0.00 1 1009.0
20260505165124 24 39 12.9 22.5 0.00 0.00 0.00 1 1009.0
20260505165003 23 37 12.9 24.1 0.00 0.00 0.00 1 1009.1
20260505164924 23 36 12.9 27.4 0.00 0.00 0.00 1 1009.0
20260505164824 23 37 12.9 27.4 0.00 0.00 0.00 1 1009.0
20260505164703 23 36 12.9 27.4 0.00 0.00 0.00 1 1009.0
20260505164624 23 37 14.5 27.4 0.00 0.00 0.00 1 1009.0
20260505164503 23 38 14.5 27.4 0.00 0.00 0.00 1 1009.1
20260505164403 23 38 14.5 27.4 0.00 0.00 0.00 1 1009.1
20260505164303 23 38 14.5 27.4 0.00 0.00 0.00 1 1009.1
20260505164203 23 37 16.1 27.4 0.00 0.00 0.00 1 1009.1
20260505164103 23 37 14.5 27.4 0.00 0.00 0.00 1 1009.1
20260505164003 23 40 14.5 27.4 0.00 0.00 0.00 1 1009.1
20260505163925 23 42 14.5 25.7 0.00 0.00 0.00 1 1009.0
20260505163803 23 42 14.5 25.7 0.00 0.00 0.00 1 1009.0
20260505163703 23 44 14.5 25.7 0.00 0.00 0.00 1 1009.0
20260505163603 23 45 14.5 25.7 0.00 0.00 0.00 1 1009.0
20260505163524 23 44 14.5 24.1 0.00 0.00 0.00 1 1009.0
20260505163403 23 44 14.5 24.1 0.00 0.00 0.00 1 1009.0
20260505163303 23 43 12.9 24.1 0.00 0.00 0.00 1 1009.0
20260505163203 23 44 12.9 24.1 0.00 0.00 0.00 1 1008.9
20260505163103 23 45 12.9 24.1 0.00 0.00 0.00 1 1008.9
20260505163024 23 44 11.3 24.1 0.00 0.00 0.00 1 1008.9
20260505162903 23 44 12.9 24.1 0.00 0.00 0.00 1 1009.0
20260505162824 23 44 12.9 24.1 0.00 0.00 0.00 1 1009.0
20260505162703 23 42 12.9 27.4 0.00 0.00 0.00 1 1009.0
20260505162604 23 40 12.9 27.4 0.00 0.00 0.00 1 1008.9
20260505162503 23 41 12.9 27.4 0.00 0.00 0.00 1 1009.0
20260505162403 23 41 12.9 27.4 0.00 0.00 0.00 1 1009.0
20260505162306 23 43 14.5 27.4 0.00 0.00 0.00 1 1009.0
20260505162203 23 43 14.5 27.4 0.00 0.00 0.00 1 1009.0
20260505162124 23 42 14.5 27.4 0.00 0.00 0.00 1 1009.0
20260505162024 23 41 14.5 27.4 0.00 0.00 0.00 1 1009.0
20260505161924 23 41 14.5 27.4 0.00 0.00 0.00 1 1009.0
20260505161803 23 40 14.5 27.4 0.00 0.00 0.00 1 1009.0
20260505161724 23 41 14.5 22.5 0.00 0.00 0.00 1 1009.0
20260505161603 23 41 12.9 22.5 0.00 0.00 0.00 1 1009.0
20260505161503 23 41 12.9 22.5 0.00 0.00 0.00 1 1009.1
20260505161403 23 42 12.9 22.5 0.00 0.00 0.00 1 1009.0
20260505161303 23 42 12.9 29.0 0.00 0.00 0.00 1 1009.1
20260505161203 23 43 12.9 29.0 0.00 0.00 0.00 1 1009.1
20260505161103 23 44 12.9 29.0 0.00 0.00 0.00 1 1009.1
20260505161003 23 46 12.9 29.0 0.00 0.00 0.00 1 1009.1
20260505160903 23 45 12.9 29.0 0.00 0.00 0.00 1 1009.1
20260505160803 23 45 12.9 29.0 0.00 0.00 0.00 1 1009.1
20260505160703 23 45 12.9 29.0 0.00 0.00 0.00 1 1009.1
20260505160603 23 47 12.9 29.0 0.00 0.00 0.00 1 1009.1
20260505160503 23 48 12.9 29.0 0.00 0.00 0.00 1 1009.1
20260505160403 23 47 12.9 29.0 0.00 0.00 0.00 1 1009.1
20260505160303 23 48 12.9 24.1 0.00 0.00 0.00 1 1009.1
20260505160203 23 47 12.9 22.5 0.00 0.00 0.00 1 1009.1
20260505160124 23 46 12.9 22.5 0.00 0.00 0.00 1 1009.1
20260505153303 23 50 12.9 24.1 0.00 0.00 0.00 1 1009.2
20260505153224 23 50 12.9 24.1 0.00 0.00 0.00 1 1009.3
20260505153103 23 51 12.9 24.1 0.00 0.00 0.00 1 1009.2
20260505153003 23 53 12.9 24.1 0.00 0.00 0.00 1 1009.2
20260505152903 22 53 12.9 24.1 0.00 0.00 0.00 1 1009.2
20260505152803 22 53 12.9 24.1 0.00 0.00 0.00 1 1009.1
20260505152703 22 53 12.9 24.1 0.00 0.00 0.00 1 1009.1
20260505152604 22 53 12.9 24.1 0.00 0.00 0.00 1 1009.1
20260505152504 22 50 12.9 29.0 0.00 0.00 0.00 1 1009.1
20260505152403 22 50 14.5 29.0 0.00 0.00 0.00 1 1009.1
20260505152305 22 50 14.5 29.0 0.00 0.00 0.00 1 1009.0
20260505152203 22 48 14.5 32.2 0.00 0.00 0.00 1 1009.0
20260505152124 22 48 14.5 32.2 0.00 0.00 0.00 1 1009.0
20260505152003 22 47 14.5 32.2 0.00 0.00 0.00 1 1008.9
20260505151903 22 48 16.1 32.2 0.00 0.00 0.00 1 1009.0
20260505151803 22 47 16.1 32.2 0.00 0.00 0.00 1 1008.9
20260505151724 22 47 16.1 32.2 0.00 0.00 0.00 1 1008.9
20260505151603 22 49 14.5 32.2 0.00 0.00 0.00 1 1009.0
20260505151503 22 50 14.5 32.2 0.00 0.00 0.00 1 1008.9
20260505151403 22 48 14.5 32.2 0.00 0.00 0.00 1 1008.8
20260505151303 22 47 14.5 32.2 0.00 0.00 0.00 1 1008.9
20260505151203 22 50 14.5 27.4 0.00 0.00 0.00 1 1008.9
20260505151103 22 50 14.5 27.4 0.00 0.00 0.00 1 1008.9
20260505151003 22 50 14.5 27.4 0.00 0.00 0.00 1 1008.8
20260505150924 22 50 14.5 27.4 0.00 0.00 0.00 1 1008.8
20260505150803 22 49 14.5 27.4 0.00 0.00 0.00 1 1008.8
20260505150703 22 49 14.5 27.4 0.00 0.00 0.00 1 1008.8
20260505150603 22 47 14.5 27.4 0.00 0.00 0.00 1 1008.8
20260505150503 22 46 14.5 27.4 0.00 0.00 0.00 1 1008.8
20260505150403 22 47 14.5 27.4 0.00 0.00 0.00 1 1008.8
20260505150303 22 47 14.5 27.4 0.00 0.00 0.00 1 1008.8
20260505150224 22 46 14.5 24.1 0.00 0.00 0.00 1 1008.8
20260505140603 22 47 9.7 22.5 0.00 0.00 0.00 1 1008.6
20260505140503 22 47 9.7 22.5 0.00 0.00 0.00 1 1008.6
20260505140424 22 47 9.7 22.5 0.00 0.00 0.00 1 1008.6
20260505140303 22 45 9.7 22.5 0.00 0.00 0.00 1 1008.5
20260505140224 22 45 9.7 22.5 0.00 0.00 0.00 1 1008.5
20260505130303 21 43 12.9 22.5 0.00 0.00 0.00 1 1008.2
20260505130203 21 43 12.9 22.5 0.00 0.00 0.00 1 1008.1
20260505130103 21 43 12.9 22.5 0.00 0.00 0.00 1 1008.1
20260505125003 22 43 14.5 30.6 0.00 0.00 0.00 1 1007.9
20260505124903 22 43 14.5 30.6 0.00 0.00 0.00 1 1007.9
20260505124803 22 44 14.5 30.6 0.00 0.00 0.00 1 1007.9
20260505124703 22 44 14.5 27.4 0.00 0.00 0.00 1 1007.9
20260505124604 22 43 14.5 27.4 0.00 0.00 0.00 1 1007.9
20260505124524 22 42 14.5 27.4 0.00 0.00 0.00 1 1007.9
20260505124403 22 42 14.5 32.2 0.00 0.00 0.00 1 1007.8
20260505124324 22 41 14.5 32.2 0.00 0.00 0.00 1 1007.7
20260505124224 22 41 12.9 32.2 0.00 0.00 0.00 1 1007.8
20260505124103 22 41 14.5 32.2 0.00 0.00 0.00 1 1007.8
20260505124003 22 41 14.5 32.2 0.00 0.00 0.00 1 1007.8
20260505123903 22 40 14.5 32.2 0.00 0.00 0.00 1 1007.8
20260505123803 22 40 14.5 32.2 0.00 0.00 0.00 1 1007.7
20260505123703 22 41 14.5 32.2 0.00 0.00 0.00 1 1007.7
20260505123603 22 41 14.5 32.2 0.00 0.00 0.00 1 1007.7
20260505123524 21 42 14.5 32.2 0.00 0.00 0.00 1 1007.7
20260505123424 21 42 14.5 25.7 0.00 0.00 0.00 1 1007.7
20260505123324 21 42 12.9 25.7 0.00 0.00 0.00 1 1007.6
20260505123203 21 42 14.5 25.7 0.00 0.00 0.00 1 1007.6
20260505123103 21 42 14.5 25.7 0.00 0.00 0.00 1 1007.6
20260505123003 21 42 14.5 25.7 0.00 0.00 0.00 1 1007.6
20260505122903 21 42 12.9 25.7 0.00 0.00 0.00 1 1007.6
20260505122803 21 41 14.5 25.7 0.00 0.00 0.00 1 1007.6
20260505122724 21 39 12.9 25.7 0.00 0.00 0.00 1 1007.6
20260505122624 21 40 12.9 25.7 0.00 0.00 0.00 1 1007.7
20260505122503 21 37 12.9 27.4 0.00 0.00 0.00 1 1007.6
20260505122403 21 38 12.9 27.4 0.00 0.00 0.00 1 1007.5
20260505122324 21 38 14.5 27.4 0.00 0.00 0.00 1 1007.6
20260505122203 21 40 14.5 30.6 0.00 0.00 0.00 1 1007.5
20260505122103 21 40 14.5 30.6 0.00 0.00 0.00 1 1007.6
20260505122003 21 39 14.5 30.6 0.00 0.00 0.00 1 1007.5
20260505121904 21 38 14.5 30.6 0.00 0.00 0.00 1 1007.5
20260505121824 21 38 12.9 30.6 0.00 0.00 0.00 1 1007.5
20260505121703 21 37 14.5 30.6 0.00 0.00 0.00 1 1007.5
20260505121603 21 35 14.5 30.6 0.00 0.00 0.00 1 1007.4
20260505121503 21 36 14.5 30.6 0.00 0.00 0.00 1 1007.4
20260505121403 21 36 16.1 30.6 0.00 0.00 0.00 1 1007.4
20260505121303 21 36 14.5 30.6 0.00 0.00 0.00 1 1007.4
20260505121203 21 35 14.5 25.7 0.00 0.00 0.00 1 1007.4
20260505121103 21 36 14.5 29.0 0.00 0.00 0.00 1 1007.4
20260505121024 22 35 14.5 29.0 0.00 0.00 0.00 1 1007.4
20260505120903 22 37 16.1 29.0 0.00 0.00 0.00 1 1007.3
20260505120824 22 37 16.1 29.0 0.00 0.00 0.00 1 1007.4
20260505120703 22 38 16.1 29.0 0.00 0.00 0.00 1 1007.3
20260505120603 22 40 16.1 29.0 0.00 0.00 0.00 1 1007.3
20260505120503 22 41 16.1 29.0 0.00 0.00 0.00 1 1007.3
20260505120403 22 40 16.1 29.0 0.00 0.00 0.00 1 1007.2
20260505120303 22 40 16.1 29.0 0.00 0.00 0.00 1 1007.3
20260505120224 22 40 16.1 29.0 0.00 0.00 0.00 1 1007.3
20260505120124 22 39 14.5 29.0 0.00 0.00 0.00 1 1007.3
20260505120004 22 41 14.5 27.4 0.00 0.00 0.00 1 1007.4
20260505115903 22 41 14.5 27.4 0.00 0.00 0.00 1 1007.4
20260505115803 22 40 14.5 30.6 0.00 0.00 0.00 1 1007.4
20260505115703 22 40 14.5 30.6 0.00 0.00 0.00 1 1007.3
20260505115603 22 39 14.5 30.6 0.00 0.00 0.00 1 1007.3
20260505115503 22 36 14.5 30.6 0.00 0.00 0.00 1 1007.2
20260505115403 22 37 14.5 30.6 0.00 0.00 0.00 1 1007.3
20260505115305 22 36 14.5 30.6 0.00 0.00 0.00 1 1007.3
20260505115224 22 36 14.5 30.6 0.00 0.00 0.00 1 1007.3
20260505115124 22 36 14.5 30.6 0.00 0.00 0.00 1 1007.3
20260505115003 22 36 14.5 30.6 0.00 0.00 0.00 1 1007.3
20260505114903 22 36 14.5 30.6 0.00 0.00 0.00 1 1007.3
20260505114803 22 38 14.5 29.0 0.00 0.00 0.00 1 1007.3
20260505114703 22 40 14.5 29.0 0.00 0.00 0.00 1 1007.2
20260505114625 22 40 16.1 30.6 0.00 0.00 0.00 1 1007.2
20260505114503 22 43 16.1 30.6 0.00 0.00 0.00 1 1007.3
20260505114403 22 44 16.1 30.6 0.00 0.00 0.00 1 1007.2
20260505114303 22 43 16.1 30.6 0.00 0.00 0.00 1 1007.2
20260505114203 22 42 16.1 33.8 0.00 0.00 0.00 1 1007.2
20260505114124 22 42 17.7 33.8 0.00 0.00 0.00 1 1007.2
20260505114003 22 42 17.7 33.8 0.00 0.00 0.00 1 1007.2
20260505113903 22 43 17.7 33.8 0.00 0.00 0.00 1 1007.3
20260505113803 22 42 17.7 33.8 0.00 0.00 0.00 1 1007.2
20260505113724 22 41 17.7 33.8 0.00 0.00 0.00 1 1007.3
20260505113603 22 39 17.7 33.8 0.00 0.00 0.00 1 1007.3
20260505113503 22 38 19.3 33.8 0.00 0.00 0.00 1 1007.3
20260505113403 22 37 19.3 33.8 0.00 0.00 0.00 1 1007.4
20260505113303 22 38 17.7 33.8 0.00 0.00 0.00 1 1007.3
20260505113203 22 37 17.7 33.8 0.00 0.00 0.00 1 1007.3
20260505113103 22 38 17.7 33.8 0.00 0.00 0.00 1 1007.3
20260505113003 22 38 17.7 33.8 0.00 0.00 0.00 1 1007.2
20260505112903 22 38 16.1 33.8 0.00 0.00 0.00 1 1007.3
20260505112803 22 38 16.1 33.8 0.00 0.00 0.00 1 1007.2
20260505112703 22 39 16.1 33.8 0.00 0.00 0.00 1 1007.2
20260505112603 22 40 14.5 33.8 0.00 0.00 0.00 1 1007.2
20260505112524 22 41 14.5 33.8 0.00 0.00 0.00 1 1007.2
20260505112403 22 44 12.9 25.7 0.00 0.00 0.00 1 1007.2
20260505112305 22 45 12.9 25.7 0.00 0.00 0.00 1 1007.1
20260505112203 22 46 12.9 25.7 0.00 0.00 0.00 1 1007.1
20260505112103 22 45 12.9 25.7 0.00 0.00 0.00 1 1007.2
20260505112003 22 45 12.9 25.7 0.00 0.00 0.00 1 1007.2
20260505111903 22 45 12.9 25.7 0.00 0.00 0.00 1 1007.2
20260505111803 22 46 12.9 25.7 0.00 0.00 0.00 1 1007.2
20260505111703 22 46 12.9 22.5 0.00 0.00 0.00 1 1007.3
20260505111605 22 44 12.9 22.5 0.00 0.00 0.00 1 1007.3
20260505111505 22 43 14.5 22.5 0.00 0.00 0.00 1 1007.3
20260505111405 22 41 14.5 29.0 0.00 0.00 0.00 1 1007.4
20260505111305 22 41 14.5 29.0 0.00 0.00 0.00 1 1007.5
20260505111205 22 43 14.5 29.0 0.00 0.00 0.00 1 1007.4
20260505111105 22 43 14.5 29.0 0.00 0.00 0.00 1 1007.5
20260505111005 22 42 14.5 29.0 0.00 0.00 0.00 1 1007.5
20260505110905 22 42 16.1 29.0 0.00 0.00 0.00 1 1007.5
20260505110805 21 41 16.1 29.0 0.00 0.00 0.00 1 1007.5
20260505110705 21 41 16.1 29.0 0.00 0.00 0.00 1 1007.5
20260505110605 21 41 14.5 29.0 0.00 0.00 0.00 1 1007.5
20260505110505 21 42 14.5 29.0 0.00 0.00 0.00 1 1007.6
20260505110405 21 44 12.9 25.7 0.00 0.00 0.00 1 1007.6
20260505110305 21 44 12.9 25.7 0.00 0.00 0.00 1 1007.6
20260505110205 21 43 12.9 25.7 0.00 0.00 0.00 1 1007.6
20260505110126 21 43 12.9 25.7 0.00 0.00 0.00 1 1007.5
20260505102205 21 44 11.3 29.0 0.00 0.00 0.00 1 1007.6
20260505102105 21 45 11.3 29.0 0.00 0.00 0.00 1 1007.7
20260505102005 21 43 11.3 29.0 0.00 0.00 0.00 1 1007.7
20260505101905 21 42 11.3 29.0 0.00 0.00 0.00 1 1007.7
20260505101805 21 41 12.9 29.0 0.00 0.00 0.00 1 1007.7
20260505101705 21 39 12.9 29.0 0.00 0.00 0.00 1 1007.7
20260505101626 21 37 12.9 29.0 0.00 0.00 0.00 1 1007.8
20260505101505 21 38 12.9 29.0 0.00 0.00 0.00 1 1007.8
20260505101405 21 38 12.9 29.0 0.00 0.00 0.00 1 1007.9
20260505101305 21 39 12.9 29.0 0.00 0.00 0.00 1 1007.8
20260505101205 21 39 11.3 29.0 0.00 0.00 0.00 1 1007.8
20260505101126 21 38 11.3 29.0 0.00 0.00 0.00 1 1007.8
20260505101005 21 39 11.3 25.7 0.00 0.00 0.00 1 1007.7
20260505100905 21 39 11.3 25.7 0.00 0.00 0.00 1 1007.7
20260505100826 21 40 9.7 25.7 0.00 0.00 0.00 1 1007.8
20260505100705 21 39 9.7 24.1 0.00 0.00 0.00 1 1007.8
20260505100605 21 41 9.7 20.9 0.00 0.00 0.00 1 1007.9
20260505100526 21 40 9.7 20.9 0.00 0.00 0.00 1 1007.8
20260505100405 21 39 9.7 20.9 0.00 0.00 0.00 1 1007.9
20260505100305 21 38 9.7 20.9 0.00 0.00 0.00 1 1007.8
20260505100205 21 37 9.7 20.9 0.00 0.00 0.00 1 1007.8
20260505100105 21 36 9.7 20.9 0.00 0.00 0.00 1 1007.7
20260505100005 21 37 9.7 20.9 0.00 0.00 0.00 1 1007.7
20260505095905 21 36 11.3 20.9 0.00 0.00 0.00 1 1007.6
20260505095805 21 36 11.3 20.9 0.00 0.00 0.00 1 1007.6
20260505095705 21 36 11.3 20.9 0.00 0.00 0.00 1 1007.5
20260505095626 21 36 11.3 20.9 0.00 0.00 0.00 1 1007.5
20260505095505 21 38 11.3 20.9 0.00 0.00 0.00 1 1007.5
20260505095405 21 38 11.3 20.9 0.00 0.00 0.00 1 1007.5
20260505095326 21 39 12.9 24.1 0.00 0.00 0.00 1 1007.4
20260505095205 21 38 12.9 24.1 0.00 0.00 0.00 1 1007.5
20260505095105 21 39 12.9 24.1 0.00 0.00 0.00 1 1007.5
20260505095005 21 38 12.9 24.1 0.00 0.00 0.00 1 1007.5
20260505094905 21 40 11.3 24.1 0.00 0.00 0.00 1 1007.6
20260505094805 21 42 11.3 24.1 0.00 0.00 0.00 1 1007.6
20260505094705 21 41 9.7 24.1 0.00 0.00 0.00 1 1007.6
20260505094605 21 41 9.7 24.1 0.00 0.00 0.00 1 1007.6
20260505094526 21 40 9.7 24.1 0.00 0.00 0.00 1 1007.6
20260505094405 21 40 9.7 24.1 0.00 0.00 0.00 1 1007.7
20260505094305 21 39 9.7 22.5 0.00 0.00 0.00 1 1007.7
20260505094205 21 40 9.7 22.5 0.00 0.00 0.00 1 1007.7
20260505094105 21 41 9.7 22.5 0.00 0.00 0.00 1 1007.7
20260505094026 21 42 9.7 22.5 0.00 0.00 0.00 1 1007.7
20260505093926 21 39 9.7 22.5 0.00 0.00 0.00 1 1007.8
20260505093826 21 38 9.7 22.5 0.00 0.00 0.00 1 1007.7
20260505093705 21 38 9.7 22.5 0.00 0.00 0.00 1 1007.8
20260505093626 21 38 9.7 22.5 0.00 0.00 0.00 1 1007.8
20260505093505 21 39 9.7 22.5 0.00 0.00 0.00 1 1007.7
20260505093405 21 40 9.7 22.5 0.00 0.00 0.00 1 1007.8
20260505093305 21 39 9.7 22.5 0.00 0.00 0.00 1 1007.7
20260505093205 21 40 9.7 22.5 0.00 0.00 0.00 1 1007.8
20260505093105 21 38 9.7 22.5 0.00 0.00 0.00 1 1007.8
20260505093005 21 39 9.7 22.5 0.00 0.00 0.00 1 1007.8
20260505092905 21 39 9.7 20.9 0.00 0.00 0.00 1 1007.8
20260505092826 21 41 9.7 20.9 0.00 0.00 0.00 1 1007.8
20260505092705 21 40 9.7 22.5 0.00 0.00 0.00 1 1007.7
20260505092605 21 40 11.3 22.5 0.00 0.00 0.00 1 1007.7
20260505092505 21 38 11.3 24.1 0.00 0.00 0.00 1 1007.6
20260505092405 21 37 12.9 24.1 0.00 0.00 0.00 1 1007.6
20260505092305 21 40 12.9 24.1 0.00 0.00 0.00 1 1007.6
20260505092205 21 37 12.9 24.1 0.00 0.00 0.00 1 1007.5
20260505092105 21 38 12.9 24.1 0.00 0.00 0.00 1 1007.6
20260505092005 21 39 12.9 24.1 0.00 0.00 0.00 1 1007.6
20260505091905 21 38 12.9 24.1 0.00 0.00 0.00 1 1007.6
20260505091805 21 35 12.9 24.1 0.00 0.00 0.00 1 1007.8
20260505091705 21 34 12.9 24.1 0.00 0.00 0.00 1 1007.9
20260505091605 21 34 12.9 25.7 0.00 0.00 0.00 1 1007.8
20260505091505 21 34 12.9 25.7 0.00 0.00 0.00 1 1007.9
20260505091426 21 34 12.9 25.7 0.00 0.00 0.00 1 1007.9
20260505091305 21 32 11.3 25.7 0.00 0.00 0.00 1 1008.0
20260505091205 21 35 12.9 27.4 0.00 0.00 0.00 1 1007.9
20260505091105 21 34 12.9 27.4 0.00 0.00 0.00 1 1007.9
20260505091026 21 34 12.9 27.4 0.00 0.00 0.00 1 1007.8
20260505090905 21 35 11.3 27.4 0.00 0.00 0.00 1 1007.8
20260505090805 21 36 11.3 27.4 0.00 0.00 0.00 1 1007.9
20260505090705 21 39 11.3 27.4 0.00 0.00 0.00 1 1007.8
20260505090605 21 40 12.9 27.4 0.00 0.00 0.00 1 1007.8
20260505090505 21 40 12.9 27.4 0.00 0.00 0.00 1 1007.9
20260505090405 21 40 12.9 27.4 0.00 0.00 0.00 1 1007.9
20260505090305 21 40 12.9 27.4 0.00 0.00 0.00 1 1007.9
20260505090205 21 40 12.9 25.7 0.00 0.00 0.00 1 1007.9
20260505090105 21 41 12.9 25.7 0.00 0.00 0.00 1 1007.9
20260505090005 21 43 12.9 25.7 0.00 0.00 0.00 1 1007.8
20260505085926 21 42 12.9 25.7 0.00 0.00 0.00 1 1007.8
20260505085805 21 41 12.9 25.7 0.00 0.00 0.00 1 1007.8
20260505085705 21 41 12.9 25.7 0.00 0.00 0.00 1 1007.8
20260505085605 21 42 12.9 22.5 0.00 0.00 0.00 1 1007.8
20260505085505 21 42 11.3 22.5 0.00 0.00 0.00 1 1007.8
20260505085405 22 42 12.9 24.1 0.00 0.00 0.00 1 1007.8
20260505085326 22 43 12.9 24.1 0.00 0.00 0.00 1 1007.8
20260505085205 21 43 12.9 24.1 0.00 0.00 0.00 1 1007.8
20260505085105 22 42 12.9 24.1 0.00 0.00 0.00 1 1007.8
20260505085005 21 42 12.9 24.1 0.00 0.00 0.00 1 1007.9
20260505084905 21 42 12.9 24.1 0.00 0.00 0.00 1 1007.9
20260505084805 22 43 12.9 24.1 0.00 0.00 0.00 1 1007.9
20260505084705 22 41 14.5 25.7 0.00 0.00 0.00 1 1007.9
20260505084605 22 40 14.5 29.0 0.00 0.00 0.00 1 1007.9
20260505084505 21 40 14.5 29.0 0.00 0.00 0.00 1 1008.0
20260505084405 21 39 16.1 29.0 0.00 0.00 0.00 1 1007.9
20260505084305 21 40 14.5 29.0 0.00 0.00 0.00 1 1007.9
20260505084205 21 40 14.5 29.0 0.00 0.00 0.00 1 1007.9
20260505084105 21 40 14.5 29.0 0.00 0.00 0.00 1 1007.8
20260505084005 21 40 14.5 29.0 0.00 0.00 0.00 1 1007.8
20260505083905 22 40 14.5 29.0 0.00 0.00 0.00 1 1007.8
20260505083805 21 39 14.5 29.0 0.00 0.00 0.00 1 1007.8
20260505083705 21 40 14.5 29.0 0.00 0.00 0.00 1 1007.8
20260505083605 21 39 16.1 37.0 0.00 0.00 0.00 1 1007.8
20260505083505 21 37 14.5 37.0 0.00 0.00 0.00 1 1008.0
20260505083405 22 37 14.5 37.0 0.00 0.00 0.00 1 1008.1
20260505083305 22 35 14.5 37.0 0.00 0.00 0.00 1 1008.1
20260505083226 22 37 14.5 37.0 0.00 0.00 0.00 1 1008.1
20260505083105 22 37 14.5 37.0 0.00 0.00 0.00 1 1008.2
20260505083005 22 36 16.1 37.0 0.00 0.00 0.00 1 1008.2
20260505082905 22 35 16.1 37.0 0.00 0.00 0.00 1 1008.2
20260505082805 22 36 14.5 37.0 0.00 0.00 0.00 1 1008.1
20260505082705 22 37 14.5 37.0 0.00 0.00 0.00 1 1008.1
20260505082605 22 37 14.5 32.2 0.00 0.00 0.00 1 1008.1
20260505082505 22 38 14.5 32.2 0.00 0.00 0.00 1 1008.1
20260505082426 22 36 14.5 32.2 0.00 0.00 0.00 1 1008.1
20260505082305 22 37 14.5 32.2 0.00 0.00 0.00 1 1008.1
20260505082205 22 37 14.5 32.2 0.00 0.00 0.00 1 1008.1
20260505082105 22 35 14.5 32.2 0.00 0.00 0.00 1 1008.1
20260505082005 22 33 16.1 32.2 0.00 0.00 0.00 1 1008.1
20260505081926 22 33 16.1 32.2 0.00 0.00 0.00 1 1008.1
20260505081805 22 31 16.1 32.2 0.00 0.00 0.00 1 1008.2
20260505081726 22 31 16.1 32.2 0.00 0.00 0.00 1 1008.1
20260505081626 22 30 16.1 32.2 0.00 0.00 0.00 1 1008.2
20260505081505 22 32 16.1 32.2 0.00 0.00 0.00 1 1008.1
20260505081426 22 32 16.1 32.2 0.00 0.00 0.00 1 1008.1
20260505081305 22 32 16.1 32.2 0.00 0.00 0.00 1 1008.2
20260505081205 22 30 16.1 32.2 0.00 0.00 0.00 1 1008.1
20260505081105 22 32 16.1 32.2 0.00 0.00 0.00 1 1008.2
20260505081026 22 33 14.5 32.2 0.00 0.00 0.00 1 1008.2
20260505080905 22 36 14.5 29.0 0.00 0.00 0.00 1 1008.2
20260505080826 22 37 14.5 29.0 0.00 0.00 0.00 1 1008.3
20260505080705 22 38 14.5 29.0 0.00 0.00 0.00 1 1008.3
20260505080626 22 38 14.5 27.4 0.00 0.00 0.00 1 1008.3
20260505080505 22 37 14.5 27.4 0.00 0.00 0.00 1 1008.3
20260505080405 22 37 14.5 30.6 0.00 0.00 0.00 1 1008.3
20260505080305 22 37 14.5 30.6 0.00 0.00 0.00 1 1008.3
20260505080205 22 38 14.5 30.6 0.00 0.00 0.00 1 1008.3
20260505080105 22 36 14.5 33.8 0.00 0.00 0.00 1 1008.2
20260505080005 22 36 16.1 33.8 0.00 0.00 0.00 1 1008.2
20260505075905 22 38 16.1 35.4 0.00 0.00 0.00 1 1008.2
20260505075805 22 37 17.7 35.4 0.00 0.00 0.00 1 1008.2
20260505075705 22 37 17.7 35.4 0.00 0.00 0.00 1 1008.3
20260505075626 22 36 17.7 35.4 0.00 0.00 0.00 1 1008.3
20260505075505 22 36 17.7 35.4 0.00 0.00 0.00 1 1008.3
20260505075405 22 36 17.7 35.4 0.00 0.00 0.00 1 1008.4
20260505075305 22 35 17.7 35.4 0.00 0.00 0.00 1 1008.4
20260505075226 22 34 16.1 35.4 0.00 0.00 0.00 1 1008.4
20260505075105 22 36 16.1 35.4 0.00 0.00 0.00 1 1008.4
20260505075026 22 35 16.1 35.4 0.00 0.00 0.00 1 1008.5
20260505074905 22 35 14.5 30.6 0.00 0.00 0.00 1 1008.5
20260505074805 22 35 14.5 30.6 0.00 0.00 0.00 1 1008.5
20260505074705 22 36 14.5 30.6 0.00 0.00 0.00 1 1008.4
20260505074605 22 35 14.5 30.6 0.00 0.00 0.00 1 1008.4
20260505074505 22 36 14.5 30.6 0.00 0.00 0.00 1 1008.4
20260505074405 22 36 14.5 27.4 0.00 0.00 0.00 1 1008.4
20260505074305 22 36 14.5 27.4 0.00 0.00 0.00 1 1008.5
20260505074205 22 38 14.5 27.4 0.00 0.00 0.00 1 1008.5
20260505074105 22 38 12.9 27.4 0.00 0.00 0.00 1 1008.5
20260505074005 22 36 12.9 27.4 0.00 0.00 0.00 1 1008.5
20260505073926 22 38 12.9 24.1 0.00 0.00 0.00 1 1008.5
20260505073805 22 37 12.9 20.9 0.00 0.00 0.00 1 1008.6
20260505073705 22 35 12.9 24.1 0.00 0.00 0.00 1 1008.6
20260505073626 22 36 12.9 24.1 0.00 0.00 0.00 1 1008.6
20260505073505 22 37 11.3 24.1 0.00 0.00 0.00 1 1008.6
20260505073405 22 37 11.3 24.1 0.00 0.00 0.00 1 1008.6
20260505073305 22 37 12.9 24.1 0.00 0.00 0.00 1 1008.7
20260505073226 22 37 12.9 24.1 0.00 0.00 0.00 1 1008.7
20260505073105 22 35 12.9 24.1 0.00 0.00 0.00 1 1008.6
20260505073005 22 36 12.9 24.1 0.00 0.00 0.00 1 1008.6
20260505072905 22 36 12.9 24.1 0.00 0.00 0.00 1 1008.7
20260505072805 22 36 12.9 27.4 0.00 0.00 0.00 1 1008.8
20260505072705 22 36 12.9 27.4 0.00 0.00 0.00 1 1008.7
20260505072605 22 36 12.9 27.4 0.00 0.00 0.00 1 1008.7
20260505072505 22 36 14.5 37.0 0.00 0.00 0.00 1 1008.7
20260505072405 22 36 14.5 37.0 0.00 0.00 0.00 1 1008.8
20260505072305 22 37 14.5 37.0 0.00 0.00 0.00 1 1008.8
20260505072205 22 37 14.5 37.0 0.00 0.00 0.00 1 1008.8
20260505072105 22 35 14.5 37.0 0.00 0.00 0.00 1 1008.8
20260505072005 22 36 14.5 37.0 0.00 0.00 0.00 1 1008.9
20260505071905 22 35 14.5 37.0 0.00 0.00 0.00 1 1008.9
20260505071805 22 37 14.5 37.0 0.00 0.00 0.00 1 1008.9
20260505071726 22 38 12.9 37.0 0.00 0.00 0.00 1 1008.9
20260505071605 22 37 12.9 37.0 0.00 0.00 0.00 1 1009.0
20260505071505 22 37 14.5 24.1 0.00 0.00 0.00 1 1008.9
20260505071405 22 35 14.5 24.1 0.00 0.00 0.00 1 1008.9
20260505071305 22 35 14.5 24.1 0.00 0.00 0.00 1 1009.0
20260505071205 22 35 14.5 24.1 0.00 0.00 0.00 1 1009.0
20260505071105 22 35 14.5 24.1 0.00 0.00 0.00 1 1009.0
20260505071005 22 36 14.5 30.6 0.00 0.00 0.00 1 1009.0
20260505070926 22 35 14.5 30.6 0.00 0.00 0.00 1 1009.0
20260505070805 22 34 14.5 30.6 0.00 0.00 0.00 1 1009.1
20260505070726 22 33 14.5 30.6 0.00 0.00 0.00 1 1009.0
20260505070605 22 33 14.5 30.6 0.00 0.00 0.00 1 1009.0
20260505070505 22 32 12.9 30.6 0.00 0.00 0.00 1 1009.0
20260505070405 22 32 12.9 30.6 0.00 0.00 0.00 1 1009.0
20260505070305 22 33 12.9 30.6 0.00 0.00 0.00 1 1009.1
20260505070205 22 35 12.9 30.6 0.00 0.00 0.00 1 1009.1
20260505070105 22 36 11.3 30.6 0.00 0.00 0.00 1 1009.1
20260505070005 22 33 11.3 29.0 0.00 0.00 0.00 1 1009.2
20260505065905 22 35 11.3 29.0 0.00 0.00 0.00 1 1009.1
20260505065805 22 35 11.3 24.1 0.00 0.00 0.00 1 1009.1
20260505065705 22 35 11.3 20.9 0.00 0.00 0.00 1 1009.2
20260505065605 22 35 11.3 20.9 0.00 0.00 0.00 1 1009.2
20260505065526 22 34 12.9 20.9 0.00 0.00 0.00 1 1009.2
20260505065405 22 35 12.9 20.9 0.00 0.00 0.00 1 1009.2
20260505065305 22 32 12.9 25.7 0.00 0.00 0.00 1 1009.2
20260505065205 22 31 14.5 32.2 0.00 0.00 0.00 1 1009.2
20260505065126 22 30 14.5 32.2 0.00 0.00 0.00 1 1009.2
20260505065026 22 31 14.5 32.2 0.00 0.00 0.00 1 1009.2
20260505064905 22 28 14.5 32.2 0.00 0.00 0.00 1 1009.1
20260505064805 22 29 14.5 32.2 0.00 0.00 0.00 1 1009.2
20260505064705 22 28 12.9 32.2 0.00 0.00 0.00 1 1009.2
20260505064605 22 29 14.5 32.2 0.00 0.00 0.00 1 1009.2
20260505064505 22 31 14.5 32.2 0.00 0.00 0.00 1 1009.1
20260505064405 22 31 14.5 32.2 0.00 0.00 0.00 1 1009.1
20260505064305 22 33 12.9 32.2 0.00 0.00 0.00 1 1009.1
20260505064205 22 33 12.9 30.6 0.00 0.00 0.00 1 1009.2
20260505064105 22 32 12.9 22.5 0.00 0.00 0.00 1 1009.2
20260505064026 22 31 12.9 22.5 0.00 0.00 0.00 1 1009.3
20260505063905 22 33 14.5 25.7 0.00 0.00 0.00 1 1009.3
20260505063805 22 32 14.5 29.0 0.00 0.00 0.00 1 1009.3
20260505063705 22 32 14.5 29.0 0.00 0.00 0.00 1 1009.3
20260505063605 22 32 14.5 29.0 0.00 0.00 0.00 1 1009.3
20260505063505 22 32 14.5 29.0 0.00 0.00 0.00 1 1009.3
20260505063405 22 33 14.5 29.0 0.00 0.00 0.00 1 1009.4
20260505063305 22 32 14.5 29.0 0.00 0.00 0.00 1 1009.4
20260505063205 22 32 14.5 29.0 0.00 0.00 0.00 1 1009.4
20260505063105 22 35 14.5 29.0 0.00 0.00 0.00 1 1009.4
20260505063005 22 34 12.9 29.0 0.00 0.00 0.00 1 1009.5
20260505062926 22 34 12.9 29.0 0.00 0.00 0.00 1 1009.5
20260505062805 22 34 12.9 24.1 0.00 0.00 0.00 1 1009.5
20260505062705 22 35 12.9 24.1 0.00 0.00 0.00 1 1009.6
20260505062604 22 35 12.9 24.1 0.00 0.00 0.00 1 1009.5
20260505062505 22 35 12.9 24.1 0.00 0.00 0.00 1 1009.5
20260505062405 22 35 12.9 24.1 0.00 0.00 0.00 1 1009.5
20260505062305 22 33 11.3 24.1 0.00 0.00 0.00 1 1009.5
20260505062205 22 35 12.9 24.1 0.00 0.00 0.00 1 1009.5
20260505062126 22 33 11.3 24.1 0.00 0.00 0.00 1 1009.5
20260505062005 22 34 11.3 24.1 0.00 0.00 0.00 1 1009.5
20260505061905 22 34 12.9 24.1 0.00 0.00 0.00 1 1009.5
20260505061805 22 37 12.9 22.5 0.00 0.00 0.00 1 1009.5
20260505061705 22 37 12.9 20.9 0.00 0.00 0.00 1 1009.5
20260505061605 22 36 12.9 29.0 0.00 0.00 0.00 1 1009.6
20260505061505 22 36 12.9 29.0 0.00 0.00 0.00 1 1009.6
20260505061405 22 37 12.9 30.6 0.00 0.00 0.00 1 1009.6
20260505061326 22 37 14.5 30.6 0.00 0.00 0.00 1 1009.6
20260505061205 22 34 14.5 30.6 0.00 0.00 0.00 1 1009.6
20260505061105 22 35 14.5 30.6 0.00 0.00 0.00 1 1009.6
20260505061005 22 35 14.5 30.6 0.00 0.00 0.00 1 1009.5
20260505060905 22 34 14.5 30.6 0.00 0.00 0.00 1 1009.6
20260505060826 22 33 12.9 30.6 0.00 0.00 0.00 1 1009.5
20260505060705 22 31 12.9 30.6 0.00 0.00 0.00 1 1009.5
20260505060605 22 33 12.9 30.6 0.00 0.00 0.00 1 1009.6
20260505060505 22 32 12.9 30.6 0.00 0.00 0.00 1 1009.6
20260505060405 22 30 12.9 29.0 0.00 0.00 0.00 1 1009.6
20260505060305 22 31 12.9 29.0 0.00 0.00 0.00 1 1009.6
20260505060205 22 33 12.9 29.0 0.00 0.00 0.00 1 1009.6
20260505060105 22 34 12.9 25.7 0.00 0.00 0.00 1 1009.6
20260505060005 22 35 12.9 25.7 0.00 0.00 0.00 1 1009.6
20260505055905 22 34 12.9 25.7 0.00 0.00 0.00 1 1009.6
20260505055805 22 34 14.5 25.7 0.00 0.00 0.00 1 1009.6
20260505055705 22 33 14.5 25.7 0.00 0.00 0.00 1 1009.6
20260505055605 22 32 14.5 25.7 0.00 0.00 0.00 1 1009.6
20260505055505 22 32 14.5 25.7 0.00 0.00 0.00 1 1009.6
20260505055405 22 33 14.5 25.7 0.00 0.00 0.00 1 1009.6
20260505055305 22 34 12.9 25.7 0.00 0.00 0.00 1 1009.5
20260505055205 22 33 12.9 25.7 0.00 0.00 0.00 1 1009.5
20260505055105 22 34 12.9 25.7 0.00 0.00 0.00 1 1009.6
20260505055005 22 34 12.9 25.7 0.00 0.00 0.00 1 1009.5
20260505054905 22 36 12.9 25.7 0.00 0.00 0.00 1 1009.5
20260505054805 22 36 12.9 22.5 0.00 0.00 0.00 1 1009.5
20260505054705 22 35 12.9 24.1 0.00 0.00 0.00 1 1009.5
20260505054626 22 36 12.9 24.1 0.00 0.00 0.00 1 1009.5
20260505054526 22 35 12.9 24.1 0.00 0.00 0.00 1 1009.5
20260505054405 22 35 12.9 24.1 0.00 0.00 0.00 1 1009.6
20260505054305 22 35 12.9 24.1 0.00 0.00 0.00 1 1009.5
20260505054205 22 34 12.9 24.1 0.00 0.00 0.00 1 1009.6
20260505054105 22 33 12.9 24.1 0.00 0.00 0.00 1 1009.5
20260505054004 22 33 12.9 24.1 0.00 0.00 0.00 1 1009.5
20260505053905 22 31 12.9 24.1 0.00 0.00 0.00 1 1009.5
20260505053805 22 33 12.9 25.7 0.00 0.00 0.00 1 1009.5
20260505053705 22 32 12.9 25.7 0.00 0.00 0.00 1 1009.5
20260505053605 22 33 12.9 25.7 0.00 0.00 0.00 1 1009.6
20260505053505 22 32 12.9 25.7 0.00 0.00 0.00 1 1009.6
20260505053405 22 31 12.9 25.7 0.00 0.00 0.00 1 1009.5
20260505053305 22 30 12.9 25.7 0.00 0.00 0.00 1 1009.6
20260505053205 22 30 12.9 25.7 0.00 0.00 0.00 1 1009.5
20260505053105 22 30 12.9 25.7 0.00 0.00 0.00 1 1009.5
20260505053005 22 28 12.9 25.7 0.00 0.00 0.00 1 1009.5
20260505052905 22 27 12.9 25.7 0.00 0.00 0.00 1 1009.5
20260505052805 22 24 11.3 25.7 0.00 0.00 0.00 1 1009.5
20260505052705 22 26 12.9 25.7 0.00 0.00 0.00 1 1009.5
20260505052605 22 26 12.9 25.7 0.00 0.00 0.00 1 1009.5
20260505052505 22 28 11.3 25.7 0.00 0.00 0.00 1 1009.5
20260505052405 22 28 12.9 24.1 0.00 0.00 0.00 1 1009.5
20260505052305 22 29 11.3 24.1 0.00 0.00 0.00 1 1009.5
20260505052205 22 31 11.3 24.1 0.00 0.00 0.00 1 1009.5
20260505052105 22 30 11.3 24.1 0.00 0.00 0.00 1 1009.5
20260505052005 22 33 11.3 24.1 0.00 0.00 0.00 1 1009.5
20260505051905 22 32 11.3 24.1 0.00 0.00 0.00 1 1009.6
20260505051805 22 33 11.3 22.5 0.00 0.00 0.00 1 1009.5
20260505051705 22 33 11.3 22.5 0.00 0.00 0.00 1 1009.5
20260505051605 22 33 11.3 22.5 0.00 0.00 0.00 1 1009.5
20260505051525 22 33 11.3 22.5 0.00 0.00 0.00 1 1009.5
20260505051405 22 36 9.7 22.5 0.00 0.00 0.00 1 1009.5
20260505051326 22 37 11.3 22.5 0.00 0.00 0.00 1 1009.4
20260505051205 22 37 11.3 22.5 0.00 0.00 0.00 1 1009.3
20260505051105 22 36 11.3 22.5 0.00 0.00 0.00 1 1009.3
20260505051026 22 34 11.3 22.5 0.00 0.00 0.00 1 1009.4
20260505050905 22 36 11.3 24.1 0.00 0.00 0.00 1 1009.4
20260505050805 22 37 11.3 24.1 0.00 0.00 0.00 1 1009.4
20260505050705 22 36 11.3 24.1 0.00 0.00 0.00 1 1009.4
20260505050626 22 37 11.3 24.1 0.00 0.00 0.00 1 1009.4
20260505050505 22 37 11.3 24.1 0.00 0.00 0.00 1 1009.5
20260505050405 22 36 11.3 24.1 0.00 0.00 0.00 1 1009.5
20260505050305 22 35 11.3 24.1 0.00 0.00 0.00 1 1009.6
20260505050205 22 34 11.3 24.1 0.00 0.00 0.00 1 1009.6
20260505050105 22 36 9.7 24.1 0.00 0.00 0.00 1 1009.6
20260505041705 22 24 11.3 24.1 0.00 0.00 0.00 1 1009.3
20260505041605 22 26 11.3 24.1 0.00 0.00 0.00 1 1009.4
20260505041505 22 26 9.7 22.5 0.00 0.00 0.00 1 1009.3
20260505041405 22 25 9.7 20.9 0.00 0.00 0.00 1 1009.4
20260505041305 22 24 9.7 20.9 0.00 0.00 0.00 1 1009.4
20260505041226 22 23 9.7 20.9 0.00 0.00 0.00 1 1009.4
20260505041105 22 27 9.7 20.9 0.00 0.00 0.00 1 1009.4
20260505041026 22 24 9.7 20.9 0.00 0.00 0.00 1 1009.4
20260505040905 22 24 9.7 20.9 0.00 0.00 0.00 1 1009.4
20260505040826 22 27 9.7 20.9 0.00 0.00 0.00 1 1009.4
20260505040726 22 26 9.7 20.9 0.00 0.00 0.00 1 1009.4
20260505040626 22 24 8.0 20.9 0.00 0.00 0.00 1 1009.4
20260505040505 22 26 8.0 20.9 0.00 0.00 0.00 1 1009.4
20260505040405 22 25 8.0 20.9 0.00 0.00 0.00 1 1009.4
20260505040305 22 24 8.0 20.9 0.00 0.00 0.00 1 1009.5
20260505040205 22 24 8.0 20.9 0.00 0.00 0.00 1 1009.5
20260505040105 22 19 8.0 17.7 0.00 0.00 0.00 1 1009.5
20260505040005 22 19 8.0 17.7 0.00 0.00 0.00 1 1009.5
20260505035905 22 18 8.0 17.7 0.00 0.00 0.00 1 1009.5
20260505035805 22 18 9.7 17.7 0.00 0.00 0.00 1 1009.5
20260505035705 22 17 9.7 22.5 0.00 0.00 0.00 1 1009.4
20260505035605 22 22 9.7 22.5 0.00 0.00 0.00 1 1009.5
20260505035505 22 20 9.7 22.5 0.00 0.00 0.00 1 1009.5
20260505035405 22 22 9.7 22.5 0.00 0.00 0.00 1 1009.5
20260505035305 22 24 9.7 22.5 0.00 0.00 0.00 1 1009.5
20260505035205 22 19 9.7 22.5 0.00 0.00 0.00 1 1009.4
20260505035126 22 21 9.7 22.5 0.00 0.00 0.00 1 1009.4
20260505035005 22 27 9.7 22.5 0.00 0.00 0.00 1 1009.4
20260505034926 22 26 9.7 22.5 0.00 0.00 0.00 1 1009.4
20260505034805 22 24 9.7 22.5 0.00 0.00 0.00 2 1009.5
20260505034705 22 21 8.0 22.5 0.00 0.00 0.00 3 1009.4
20260505034605 22 20 8.0 22.5 0.00 0.00 0.00 3 1009.4
20260505034505 22 19 8.0 22.5 0.00 0.00 0.00 4 1009.4
20260505034405 22 22 8.0 22.5 0.00 0.00 0.00 4 1009.4
20260505034326 22 19 8.0 22.5 0.00 0.00 0.00 4 1009.4
20260505034205 22 20 8.0 22.5 0.00 0.00 0.00 5 1009.4
20260505034126 22 20 8.0 22.5 0.00 0.00 0.00 5 1009.4
20260505034005 22 21 8.0 22.5 0.00 0.00 0.00 6 1009.4
20260505033905 22 23 8.0 22.5 0.00 0.00 0.00 7 1009.4
20260505033805 23 18 8.0 17.7 0.00 0.00 0.00 7 1009.4
20260505033705 23 22 8.0 17.7 0.00 0.00 0.00 8 1009.4
20260505033626 23 22 8.0 17.7 0.00 0.00 0.00 9 1009.4
20260505033505 23 22 8.0 17.7 0.00 0.00 0.00 9 1009.4
20260505033405 23 21 8.0 19.3 0.00 0.00 0.00 10 1009.4
20260505033326 23 22 9.7 19.3 0.00 0.00 0.00 10 1009.4
20260505033205 23 22 8.0 22.5 0.00 0.00 0.00 11 1009.4
20260505033105 23 22 9.7 22.5 0.00 0.00 0.00 11 1009.4
20260505033005 23 21 9.7 22.5 0.00 0.00 0.00 12 1009.4
20260505032905 23 20 9.7 22.5 0.00 0.00 0.00 13 1009.4
20260505032805 23 24 9.7 22.5 0.00 0.00 0.00 14 1009.4
20260505032705 23 23 9.7 22.5 0.00 0.00 0.00 14 1009.4
20260505032605 23 19 9.7 22.5 0.00 0.00 0.00 14 1009.4
20260505032526 23 21 9.7 22.5 0.00 0.00 0.00 14 1009.4
20260505032405 23 20 9.7 22.5 0.00 0.00 0.00 15 1009.4
20260505032305 23 20 8.0 22.5 0.00 0.00 0.00 16 1009.4
20260505032205 23 21 8.0 20.9 0.00 0.00 0.00 16 1009.3
20260505032105 23 19 8.0 20.9 0.00 0.00 0.00 16 1009.3
20260505032005 23 13 8.0 20.9 0.00 0.00 0.00 17 1009.3
20260505031905 23 9 8.0 16.1 0.00 0.00 0.00 17 1009.3
20260505031805 23 9 8.0 16.1 0.00 0.00 0.00 18 1009.4
20260505031705 23 11 6.4 16.1 0.00 0.00 0.00 18 1009.4
20260505031605 23 17 6.4 16.1 0.00 0.00 0.00 19 1009.4
20260505031505 23 14 6.4 16.1 0.00 0.00 0.00 19 1009.4
20260505031405 23 13 6.4 14.5 0.00 0.00 0.00 20 1009.4
20260505031305 23 13 6.4 14.5 0.00 0.00 0.00 20 1009.4
20260505031205 23 13 6.4 14.5 0.00 0.00 0.00 21 1009.4
20260505031126 23 12 6.4 14.5 0.00 0.00 0.00 21 1009.4
20260505031005 23 19 6.4 14.5 0.00 0.00 0.00 22 1009.4
20260505030905 23 25 6.4 14.5 0.00 0.00 0.00 22 1009.4
20260505030805 23 26 6.4 14.5 0.00 0.00 0.00 23 1009.4
20260505030705 23 21 8.0 14.5 0.00 0.00 0.00 23 1009.4
20260505030626 23 19 8.0 14.5 0.00 0.00 0.00 23 1009.4
20260505030505 23 18 6.4 14.5 0.00 0.00 0.00 24 1009.3
20260505030426 23 16 6.4 14.5 0.00 0.00 0.00 24 1009.3
20260505030305 23 12 6.4 14.5 0.00 0.00 0.00 24 1009.3
20260505030205 23 16 6.4 14.5 0.00 0.00 0.00 25 1009.3
20260505030105 23 18 6.4 14.5 0.00 0.00 0.00 25 1009.3
20260505030005 23 18 6.4 14.5 0.00 0.00 0.00 26 1009.4
20260505025904 23 21 6.4 14.5 0.00 0.00 0.00 26 1009.4
20260505025805 23 15 6.4 14.5 0.00 0.00 0.00 27 1009.4
20260505025705 23 11 6.4 14.5 0.00 0.00 0.00 27 1009.4
20260505025605 23 11 6.4 14.5 0.00 0.00 0.00 27 1009.3
20260505025526 23 15 6.4 14.5 0.00 0.00 0.00 28 1009.3
20260505025405 23 18 6.4 19.3 0.00 0.00 0.00 28 1009.3
20260505025305 23 22 6.4 19.3 0.00 0.00 0.00 29 1009.3
20260505025205 23 20 6.4 19.3 0.00 0.00 0.00 29 1009.3
20260505025105 23 19 6.4 19.3 0.00 0.00 0.00 29 1009.3
20260505025005 23 17 6.4 19.3 0.00 0.00 0.00 29 1009.3
20260505024905 23 13 6.4 19.3 0.00 0.00 0.00 30 1009.3
20260505024805 23 18 6.4 19.3 0.00 0.00 0.00 30 1009.3
20260505024705 23 25 4.8 19.3 0.00 0.00 0.00 31 1009.3
20260505024605 23 25 4.8 19.3 0.00 0.00 0.00 31 1009.3
20260505024505 23 26 4.8 14.5 0.00 0.00 0.00 32 1009.3
20260505024426 23 22 4.8 14.5 0.00 0.00 0.00 32 1009.3
20260505024326 23 18 4.8 14.5 0.00 0.00 0.00 32 1009.3
20260505024205 23 11 4.8 14.5 0.00 0.00 0.00 33 1009.3
20260505024105 23 11 4.8 14.5 0.00 0.00 0.00 34 1009.3
20260505024026 23 13 4.8 14.5 0.00 0.00 0.00 34 1009.3
20260505023905 23 15 4.8 14.5 0.00 0.00 0.00 34 1009.3
20260505023805 23 15 6.4 14.5 0.00 0.00 0.00 35 1009.3
20260505023705 23 15 6.4 14.5 0.00 0.00 0.00 35 1009.2
20260505023605 23 15 6.4 14.5 0.00 0.00 0.00 36 1009.2
20260505023505 23 14 6.4 14.5 0.00 0.00 0.00 37 1009.2
20260505023405 23 17 6.4 14.5 0.00 0.00 0.00 37 1009.2
20260505023305 23 23 6.4 14.5 0.00 0.00 0.00 37 1009.2
20260505023205 23 29 6.4 14.5 0.00 0.00 0.00 38 1009.2
20260505023105 23 32 6.4 14.5 0.00 0.00 0.00 38 1009.1
20260505023004 23 31 6.4 14.5 0.00 0.00 0.00 39 1009.1
20260505022926 23 30 6.4 16.1 0.00 0.00 0.00 39 1009.1
20260505022805 23 29 6.4 16.1 0.00 0.00 0.00 39 1009.1
20260505022726 23 29 6.4 16.1 0.00 0.00 0.00 39 1009.1
20260505022626 23 29 6.4 16.1 0.00 0.00 0.00 40 1009.2
20260505022505 23 27 6.4 16.1 0.00 0.00 0.00 40 1009.2
20260505022405 23 26 6.4 16.1 0.00 0.00 0.00 41 1009.2
20260505022305 23 22 8.0 16.1 0.00 0.00 0.00 41 1009.2
20260505022205 23 20 8.0 16.1 0.00 0.00 0.00 41 1009.1
20260505022105 23 14 8.0 16.1 0.00 0.00 0.00 42 1009.1
20260505022005 23 11 8.0 16.1 0.00 0.00 0.00 42 1009.2
20260505021926 23 11 8.0 14.5 0.00 0.00 0.00 43 1009.2
20260505021805 23 14 6.4 14.5 0.00 0.00 0.00 44 1009.1
20260505021726 23 15 6.4 14.5 0.00 0.00 0.00 44 1009.1
20260505021605 23 14 6.4 14.5 0.00 0.00 0.00 45 1009.0
20260505021505 23 15 6.4 14.5 0.00 0.00 0.00 45 1009.0
20260505021405 24 17 6.4 14.5 0.00 0.00 0.00 45 1009.0
20260505021305 24 18 6.4 16.1 0.00 0.00 0.00 46 1009.0
20260505021205 24 20 6.4 16.1 0.00 0.00 0.00 47 1009.1
20260505021105 24 22 6.4 16.1 0.00 0.00 0.00 47 1009.1
20260505021005 24 24 6.4 16.1 0.00 0.00 0.00 48 1009.1
20260505020905 24 21 6.4 16.1 0.00 0.00 0.00 48 1009.1
20260505020805 24 19 8.0 16.1 0.00 0.00 0.00 48 1009.1
20260505020705 24 13 6.4 16.1 0.00 0.00 0.00 49 1009.2
20260505020605 24 11 6.4 16.1 0.00 0.00 0.00 50 1009.1
20260505020505 24 6 6.4 16.1 0.00 0.00 0.00 50 1009.1
20260505020405 24 6 6.4 16.1 0.00 0.00 0.00 50 1009.1
20260505020326 24 8 6.4 16.1 0.00 0.00 0.00 51 1009.1
20260505020205 24 360 6.4 16.1 0.00 0.00 0.00 51 1009.1
20260505020126 24 360 6.4 16.1 0.00 0.00 0.00 51 1009.1
20260505020005 24 354 4.8 16.1 0.00 0.00 0.00 52 1009.1